[{"header": {"dx": 0.06612293990616946, "dy": 0.0552356325346848, "nx": 98, "ny": 59, "la1": 35.046912555036876, "la2": 31.78801023549047, "lo1": -121.43107172385933, "lo2": -114.95102361305473, "refTime": "2026041519", "parameterCategory": 1, "parameterNumber": 2}, "data": [6.9, 6.92, 6.94, 6.97, 6.7, 6.97, 6.64, 6.87, 7.15, 7.23, 7.08, 7.09, 8.56, 7.85, 7.85, 8.0, 6.88, 3.79, 0.0, 0.0, -1.84, -1.98, -2.2, -2.0, -1.08, -2.0, -2.0, -2.2, -1.83, -1.05, -1.05, 0.0, 0.0, 1.05, 1.84, 2.8, 2.8, 3.22, 3.63, 4.11, 5.2, 6.0, 6.9, 8.4, 9.32, 9.36, 9.77, 8.95, 8.72, 8.56, 8.0, 8.05, 7.55, 7.12, 6.18, 6.11, 6.11, 6.55, 6.18, 6.6, 6.6, 6.21, 5.58, 5.58, 6.0, 6.57, 6.57, 6.57, 7.12, 7.12, 6.88, 6.45, 6.17, 5.73, 5.26, 5.26, 5.26, 4.47, 4.02, 3.13, 2.68, 0.0, 0.0, 1.9, 2.68, 3.13, 4.92, 5.26, 3.0, 0.89, 0.85, 1.84, 2.57, 3.45, 3.6, 4.42, 3.55, 0.94, 7.13, 7.16, 6.94, 6.96, 6.71, 6.98, 6.67, 6.92, 6.87, 6.79, 6.95, 7.82, 7.76, 7.35, 8.6, 8.17, 7.37, 6.4, 1.98, 0.0, 0.0, -1.52, -1.63, -1.98, -2.0, -2.48, -1.08, -1.19, -1.05, -1.05, -0.96, 0.0, 0.0, 0.96, 1.98, 3.0, 2.64, 3.0, 2.8, 3.91, 5.24, 6.44, 6.98, 7.41, 8.42, 8.43, 8.72, 8.06, 7.12, 7.37, 7.15, 7.15, 6.88, 6.0, 5.82, 6.18, 6.55, 7.2, 7.2, 7.12, 7.12, 6.57, 6.16, 6.0, 6.16, 6.16, 6.88, 6.88, 6.88, 7.37, 6.94, 7.08, 6.26, 5.81, 4.92, 4.92, 5.36, 4.47, 4.02, 3.13, 2.68, 0.0, 0.0, 1.9, 2.68, 3.13, 4.92, 5.26, 3.0, 0.89, 0.85, 1.84, 2.57, 3.45, 3.6, 4.42, 3.55, 0.94, 7.13, 6.9, 6.92, 6.7, 6.97, 6.7, 6.69, 6.95, 6.59, 6.52, 6.7, 6.03, 7.76, 7.35, 6.94, 7.63, 8.06, 7.12, 3.22, 0.0, 0.0, 0.0, -1.98, -1.98, -3.47, -2.2, -1.08, -1.08, 0.0, 0.0, 0.0, 0.0, 0.0, 1.49, 1.98, 2.99, 2.64, 1.96, 2.82, 3.55, 4.56, 6.32, 7.4, 7.76, 7.76, 7.82, 8.06, 7.54, 7.15, 6.71, 6.64, 6.45, 6.57, 6.21, 5.46, 6.6, 6.8, 7.53, 7.53, 7.53, 7.12, 6.57, 6.16, 6.0, 6.16, 6.57, 6.88, 6.88, 6.88, 7.1, 7.54, 7.15, 6.64, 5.73, 4.82, 4.47, 4.92, 4.47, 2.68, 2.24, 2.24, 2.24, 0.0, 0.0, 1.58, 2.6, 4.15, 4.8, 0.94, -0.0, 0.85, 1.75, 2.83, 3.8, 4.68, 4.87, 3.55, 0.89, 6.88, 6.9, 6.92, 6.94, 6.7, 6.71, 6.35, 6.35, 6.64, 6.62, 6.57, 6.23, 7.82, 7.35, 7.76, 7.6, 7.76, 8.0, 5.84, 2.8, 0.96, 0.0, 0.0, -1.83, -1.99, -1.63, -1.05, -0.96, 0.0, 0.0, 0.0, 0.0, 0.0, 0.0, 1.49, 2.82, 3.15, 2.83, 2.83, 3.32, 5.46, 6.83, 6.95, 7.15, 7.2, 7.53, 8.0, 8.05, 8.05, 7.55, 6.79, 7.12, 6.57, 6.57, 6.57, 6.7, 7.37, 7.81, 7.81, 7.12, 7.12, 6.99, 6.57, 6.57, 6.57, 6.57, 6.88, 6.51, 6.51, 7.11, 7.6, 7.1, 5.6, 3.48, 2.84, 3.72, 4.02, 3.13, 2.24, -2.68, 1.34, 2.24, 2.24, 2.68, 2.8, 3.72, 4.02, 1.03, -0.0, -0.0, 0.89, 1.84, 2.69, 4.5, 5.69, 5.37, 2.82, -0.0, 6.88, 7.13, 7.16, 6.94, 6.96, 6.97, 6.34, 6.35, 6.65, 6.32, 6.28, 6.28, 7.81, 7.6, 7.76, 7.6, 7.07, 7.82, 6.79, 4.87, 3.4, 1.63, 0.0, 0.0, -0.96, -1.63, -1.73, 0.0, 0.0, 0.96, 0.89, 1.84, 1.84, 1.98, 1.63, 1.73, 1.73, 2.99, 2.7, 3.36, 4.2, 5.1, 6.11, 7.2, 7.53, 7.85, 8.0, 8.05, 8.49, 8.44, 8.29, 7.85, 7.81, 7.37, 7.37, 7.37, 7.37, 7.37, 7.81, 7.37, 7.12, 6.57, 6.21, 6.21, 6.57, 6.57, 6.88, 6.88, 6.88, 7.1, 6.64, 5.36, 2.8, 0.0, 0.0, 0.0, 2.8, 2.68, -2.68, -2.24, 1.79, 2.24, 2.24, 0.0, 3.2, 4.02, 0.96, -0.0, -0.0, -0.0, 0.85, 1.84, 3.8, 4.94, 6.45, 5.37, 1.96, -0.0, 6.88, 7.13, 6.9, 6.92, 6.94, 6.7, 6.33, 6.63, 6.35, 6.34, 6.01, 5.69, 7.81, 8.0, 8.48, 7.76, 7.2, 7.58, 7.15, 6.45, 5.06, 3.48, 3.48, 2.4, 0.0, 0.0, 0.0, 0.0, 0.0, 0.0, 1.72, 3.0, 4.58, 5.49, 3.79, 1.4, 2.24, -1.2, -1.03, 0.0, 1.84, 4.56, 5.24, 6.57, 7.12, 7.37, 7.54, 7.6, 8.05, 8.0, 8.0, 8.0, 7.85, 7.55, 7.55, 7.54, 7.54, 7.37, 7.81, 7.37, 6.57, 6.21, 6.21, 6.21, 6.57, 6.57, 6.57, 6.45, 6.45, 6.45, 4.98, 3.48, -0.0, -3.58, -3.2, -2.21, 2.24, 2.24, -2.68, -2.8, 0.0, 2.24, 2.24, 2.24, 2.21, 1.05, -0.0, -0.0, -0.0, -0.0, 0.94, 2.54, 4.26, 5.53, 6.45, 4.87, 0.94, -0.0, 6.88, 7.13, 6.9, 6.92, 6.94, 6.96, 6.97, 6.34, 6.35, 6.06, 6.32, 5.69, 7.81, 7.82, 9.21, 8.3, 8.3, 7.58, 7.15, 7.07, 6.7, 5.81, 5.26, 5.36, 6.26, 5.51, 2.2, 0.0, 0.0, 0.0, 0.0, 2.64, 5.37, 7.2, 6.4, 3.58, -0.0, -5.21, -5.94, -2.2, 0.0, 3.48, 5.36, 6.26, 6.71, 6.17, 6.88, 7.1, 7.1, 7.94, 7.94, 7.54, 7.55, 7.54, 7.6, 7.6, 7.54, 7.54, 7.54, 6.94, 6.16, 6.0, 6.0, 6.16, 6.16, 6.57, 6.16, 5.94, 5.94, 5.4, 4.29, 2.4, 1.05, -0.0, -0.0, -0.0, -0.0, 2.24, -2.68, -4.02, -2.68, -0.0, -0.0, 1.6, 1.08, -0.0, -0.0, -0.0, -0.0, -0.0, 0.79, 3.2, 5.24, 6.45, 5.69, 2.82, -0.0, -0.0, 6.88, 6.88, 6.9, 6.92, 6.94, 6.96, 6.7, 6.61, 6.35, 6.35, 5.72, 5.1, 6.79, 7.58, 8.54, 8.0, 8.55, 8.4, 8.0, 7.82, 7.37, 6.26, 5.94, 6.0, 6.57, 7.06, 6.0, 5.58, 5.36, 1.98, 0.0, 1.49, 4.29, 6.8, 5.81, 3.93, -0.0, -2.2, -4.8, -4.4, -0.0, 1.84, 3.72, 4.29, 4.83, 6.01, 6.18, 7.2, 7.12, 7.63, 6.88, 6.94, 7.54, 7.6, 7.6, 7.15, 7.15, 7.15, 6.71, 6.64, 5.94, 5.51, 5.94, 5.2, 5.6, 6.0, 6.45, 5.94, 5.4, 4.98, 4.8, 3.48, 2.2, 1.05, 0.96, 1.7, 2.2, 1.6, -1.4, -4.24, -3.58, -1.2, -0.0, 1.13, 0.98, 0.88, -0.0, -0.0, -0.0, 1.01, 1.72, 3.11, 5.37, 5.24, 3.77, 1.84, -0.0, -0.0, 6.43, 6.88, 6.9, 7.16, 6.92, 6.94, 6.7, 6.33, 6.34, 6.08, 5.72, 5.1, 6.87, 6.64, 6.32, 6.64, 7.51, 7.81, 7.44, 7.37, 7.45, 6.71, 4.98, 4.43, 4.74, 6.44, 5.37, 5.69, 6.8, 6.51, 2.2, 3.58, 3.48, 5.21, 4.89, 4.43, 1.98, -0.0, -0.0, -0.0, 1.49, 1.58, 2.99, 4.14, 4.37, 4.87, 6.98, 6.98, 7.2, 7.2, 8.48, 7.37, 8.05, 7.6, 7.54, 7.1, 7.08, 6.26, 5.81, 5.36, 4.82, 4.77, 4.4, 4.6, 5.4, 6.2, 6.64, 6.17, 5.26, 4.82, 4.77, 3.9, 2.84, 0.99, 1.13, 2.48, 2.2, 2.2, -0.0, -2.21, -4.02, -2.4, -0.0, -0.0, 1.13, 1.8, 1.66, 1.05, 0.81, 1.7, 2.4, 3.22, 3.9, 3.99, 2.67, 0.94, 0.94, 0.94, 6.43, 6.43, 6.9, 6.9, 6.92, 6.94, 6.96, 6.97, 6.61, 6.35, 5.72, 5.72, 6.34, 6.28, 6.95, 5.82, 5.82, 4.94, 5.06, 5.36, 5.51, 4.11, 3.47, 1.63, 3.0, 3.0, 3.2, 3.2, 5.72, 6.51, 2.6, -0.0, 1.58, 2.99, 4.83, 5.37, 3.97, 1.98, 1.58, 2.99, 3.55, 3.55, 3.72, 4.19, 4.43, 4.74, 5.95, 7.2, 7.76, 8.48, 8.77, 8.45, 8.49, 7.85, 7.53, 7.12, 6.16, 5.51, 4.82, 4.47, 3.82, 3.48, 4.74, 4.89, 6.0, 7.15, 7.15, 5.36, 4.92, 4.92, 4.47, 3.58, 2.68, 2.4, 1.58, 1.9, 1.6, 1.27, 0.98, -0.0, -1.2, -2.68, -1.79, 1.34, 1.58, 2.21, 1.98, 1.98, 1.8, 2.0, 2.53, 2.6, 2.82, 2.67, 2.67, 1.84, 0.94, 0.94, 6.43, 6.68, 6.9, 6.9, 6.92, 6.94, 6.96, 6.7, 6.33, 6.34, 6.35, 6.34, 7.3, 8.08, 9.16, 6.73, 5.15, 1.61, 0.45, 0.54, 1.05, 1.05, 1.05, 1.05, -0.0, -0.0, -0.0, -0.0, 3.0, 3.2, 3.4, 1.96, 3.2, 4.47, 4.74, 6.44, 5.69, 4.37, 3.77, 4.87, 5.37, 5.06, 4.74, 4.74, 4.74, 3.91, 5.58, 6.57, 7.37, 8.0, 8.45, 8.49, 8.49, 8.0, 7.2, 6.18, 4.74, 3.79, 2.84, 1.9, 1.05, 1.84, 3.77, 5.24, 7.2, 7.55, 6.94, 5.37, 4.29, 4.4, 4.0, 3.39, 2.97, 2.68, 2.24, 1.79, 1.79, -0.0, -0.0, 1.19, 0.98, 1.79, 0.0, 0.0, 0.0, 2.24, 2.68, 2.8, 2.21, 1.98, 1.8, 2.16, 1.98, 2.64, 2.82, 1.84, 1.84, 1.84, 6.43, 6.46, 6.46, 6.9, 6.92, 6.92, 6.94, 6.96, 6.97, 6.71, 6.34, 6.98, 7.32, 8.78, 9.1, 9.01, 7.26, 4.44, 2.91, 2.15, 1.61, 0.54, -0.0, -0.0, -0.0, -1.84, -1.7, -0.65, -0.0, 1.98, 4.29, 3.97, 4.87, 5.49, 5.49, 5.84, 5.77, 5.69, 5.37, 5.49, 5.95, 5.58, 4.11, 3.47, 2.8, 2.99, 5.06, 5.72, 6.8, 7.45, 6.45, 6.88, 6.0, 5.4, 4.47, 3.93, 2.99, 0.0, -2.21, -2.16, -0.0, 1.75, 3.63, 5.36, 7.15, 7.76, 6.64, 3.72, 1.84, 2.4, 2.68, 2.84, 2.84, 2.48, 1.8, 0.0, 0.0, -2.68, -1.2, -0.0, 2.48, 2.84, 2.24, 0.0, 0.0, 0.0, 1.2, 2.24, 2.68, 1.2, 1.4, 1.13, 2.0, 2.99, 3.0, 2.82, 2.82, 1.96, 6.46, 6.46, 6.46, 6.46, 6.92, 6.92, 6.94, 6.96, 6.7, 6.97, 6.71, 6.98, 7.61, 8.82, 9.86, 10.68, 10.66, 9.32, 7.15, 5.78, 3.87, 1.49, -0.0, -0.0, -1.26, -1.26, -1.2, -0.95, -0.0, 0.6, 2.95, 4.29, 4.58, 5.49, 5.49, 5.84, 5.82, 6.21, 6.57, 6.16, 5.6, 4.54, 3.22, 0.96, -0.0, 1.52, 3.0, 5.06, 5.06, 5.06, 4.11, 3.35, 1.7, 0.88, -0.0, 2.6, 4.47, 0.0, -4.47, -3.6, -0.85, 1.75, 3.63, 4.5, 4.34, 5.36, 4.6, 1.19, 0.0, 0.0, 1.05, 1.05, 1.05, 0.0, -1.4, -2.8, -3.58, -3.58, -2.24, 1.34, 2.0, 1.6, -0.0, -0.0, 1.79, 0.0, 0.0, 0.0, 1.34, 1.58, 1.79, 1.79, 1.9, 2.48, 2.99, 2.8, 3.0, 3.0, 6.46, 6.46, 6.46, 6.46, 7.16, 6.92, 7.19, 6.94, 6.96, 6.96, 7.33, 7.33, 7.61, 8.24, 9.42, 10.41, 10.91, 10.6, 9.23, 7.52, 5.81, 3.58, 1.34, 0.0, -0.45, -0.89, -0.89, -0.45, 0.0, -0.0, 1.0, 2.99, 4.56, 4.74, 5.49, 5.49, 5.82, 6.57, 6.64, 5.73, 4.98, 3.48, 1.84, -0.0, -0.0, -0.0, 1.99, 3.0, 3.2, 3.4, 3.2, 1.63, -0.0, -0.0, 1.4, 2.6, 4.74, 4.92, -0.0, -3.6, -1.68, 1.39, 2.7, 2.7, 2.57, 2.69, 1.63, 1.9, 0.0, -1.14, -1.05, -1.99, -3.16, -4.02, -4.09, -3.72, -3.82, -3.58, -3.13, 2.24, 1.79, -0.0, -0.0, -0.0, 1.13, -0.0, -2.21, -3.13, -0.0, 1.79, 1.79, 0.0, 1.34, 2.21, 2.84, 3.22, 2.99, 2.99, 6.46, 6.46, 6.46, 6.46, 6.9, 6.92, 6.92, 6.94, 6.94, 7.33, 7.33, 7.61, 7.95, 8.24, 8.82, 9.59, 10.3, 10.0, 9.51, 8.48, 7.4, 5.26, 2.97, 1.2, 0.0, 0.0, 0.0, 0.45, 0.45, -0.0, 0.71, 1.6, 4.56, 4.56, 3.91, 5.03, 6.9, 6.45, 7.15, 4.92, 3.35, 1.7, -0.0, -0.0, -0.0, -0.0, -0.0, 1.52, 1.63, 1.63, 1.73, 1.63, -0.0, -0.0, 1.63, 3.0, 5.06, 4.6, 3.22, -0.0, -0.0, -0.0, 1.32, 1.4, 2.83, 1.47, 1.4, 3.2, 5.36, 0.0, -2.99, -4.92, -4.65, -3.0, -0.89, -0.0, -1.19, -3.2, -3.13, -2.21, -1.9, -2.68, -2.24, -1.58, -0.0, 1.05, -0.0, -1.27, -0.0, -0.0, 1.79, -1.58, 0.0, 1.79, 2.8, 3.48, 3.22, 3.22, 6.46, 6.46, 6.46, 6.46, 6.9, 7.16, 6.92, 7.19, 7.33, 7.6, 7.6, 8.24, 7.95, 8.24, 8.53, 9.02, 9.3, 9.63, 9.2, 8.91, 7.81, 6.6, 4.8, 3.2, 2.17, 1.79, 1.79, 1.79, 1.34, 0.6, 0.53, 1.11, 1.76, 2.66, 2.54, 3.4, 5.49, 5.94, 6.07, 4.4, -0.0, -0.0, -0.0, -0.0, -0.0, -0.0, -0.0, -0.0, -0.0, 1.52, 1.52, 1.63, 1.63, 1.63, 3.47, 3.47, 4.74, 4.74, 4.83, 2.69, 0.95, 1.63, 1.52, 3.0, 3.2, 3.2, 3.91, 6.44, 7.47, 5.2, -3.2, -4.11, -2.82, -1.75, -0.0, 1.75, 1.96, -0.0, -2.68, -2.84, -3.16, -2.84, -3.2, -3.13, -2.68, -0.0, 1.05, 0.96, -0.0, 0.96, -0.0, -1.2, 0.0, 2.24, 2.68, 2.8, 1.98, 1.98, 6.46, 6.46, 6.46, 6.46, 6.46, 6.9, 6.92, 6.92, 7.59, 7.59, 7.6, 7.96, 8.24, 8.24, 8.24, 8.5, 8.73, 9.21, 9.1, 8.43, 8.0, 6.8, 5.6, 4.6, 3.98, 4.02, 3.98, 3.53, 2.17, 0.57, -0.0, 0.57, 0.55, -0.0, -0.0, 0.76, 0.95, 3.47, 1.7, -0.0, -0.0, -0.0, -0.0, -0.0, -0.0, -0.0, -0.0, -0.0, -0.0, 1.84, 1.84, 1.84, 3.47, 3.47, 4.43, 4.43, 4.43, 4.74, 4.02, 4.29, 3.0, 3.22, 3.79, 3.79, 4.84, 3.93, 5.58, 6.4, 6.4, 4.92, -3.48, -3.72, -2.82, -0.84, -0.0, 2.54, 3.6, 2.8, -0.0, -2.68, -2.84, -4.09, -3.72, -3.39, -3.13, 2.24, 1.4, -0.0, 0.96, -0.0, -1.2, -2.21, 0.0, 2.24, 2.68, 1.79, 1.58, 1.58, 6.0, 6.46, 6.46, 6.46, 6.46, 6.9, 7.16, 6.92, 7.32, 7.59, 8.24, 8.24, 8.24, 7.95, 7.93, 7.9, 8.78, 8.94, 8.84, 8.82, 8.0, 7.31, 6.1, 5.57, 5.24, 5.24, 4.6, 3.88, 1.2, -0.0, -0.0, -0.0, -0.0, -0.0, -0.58, -1.75, -1.84, -1.49, -0.0, -1.63, -0.0, -0.0, -0.0, -0.0, 1.4, 2.66, 3.0, 1.84, 1.7, 1.7, 1.7, 1.7, 2.98, 4.11, 4.84, 5.21, 5.21, 4.43, 4.43, 5.21, 4.84, 4.84, 4.8, 5.36, 5.36, 4.34, 4.82, 6.51, 6.0, 5.21, 2.12, -0.0, -0.0, -0.0, 1.84, 3.6, 3.6, 2.67, 3.0, 1.99, -0.0, -2.53, -4.47, -2.68, -2.68, 2.24, -0.0, -0.0, -0.0, 0.96, -0.0, -3.13, -2.24, -0.0, 1.4, -0.0, -0.0, -0.0, 6.0, 6.46, 6.46, 6.46, 6.46, 6.9, 7.16, 7.16, 7.57, 7.59, 7.96, 8.24, 8.24, 8.24, 7.93, 9.06, 7.9, 8.19, 8.08, 8.43, 8.91, 8.4, 6.8, 7.2, 6.16, 5.21, 0.99, 2.8, -0.0, -0.0, -0.0, 0.51, -0.0, -0.57, -1.73, -2.36, -2.82, -2.4, -2.8, -3.2, -0.96, -0.0, -0.0, 1.4, 2.99, 5.37, 4.74, 3.22, 1.7, 1.7, 1.84, 1.84, 3.22, 3.22, 3.22, 5.21, 5.21, 5.21, 5.21, 5.51, 5.51, 5.09, 5.09, 4.47, 4.47, 4.47, 4.92, 5.73, 6.45, 7.89, 7.33, 6.45, 6.45, 5.37, 5.06, 3.97, 2.82, 2.67, 2.83, 2.67, 1.03, -1.05, -3.48, -2.98, -3.2, -1.6, -1.6, -1.9, -0.0, 0.98, 1.19, -0.0, -2.48, -0.87, -0.0, -0.0, -0.0, -0.0, 5.8, 6.46, 6.46, 6.46, 6.46, 6.9, 7.16, 7.16, 7.57, 7.57, 7.96, 8.24, 8.24, 8.24, 7.95, 7.6, 7.3, 6.97, 8.22, 7.97, 8.73, 7.09, 6.52, 6.73, 5.95, 3.35, 1.34, -0.57, -0.0, -0.0, 0.65, 0.53, -0.0, -0.51, -1.27, -2.22, -2.22, -2.86, -2.48, -1.8, -1.11, -0.0, 0.55, 1.7, 2.82, 5.69, 4.74, 3.22, -0.0, 1.84, 1.41, 1.98, 3.47, 3.47, 3.22, 4.11, 5.58, 4.22, 4.98, 5.81, 5.36, 5.36, 5.36, 5.36, 4.02, 4.47, 4.92, 5.73, 6.88, 7.63, 8.72, 10.89, 11.05, 9.79, 7.1, 4.98, 2.99, 2.12, 2.99, 2.82, 2.82, 0.95, -0.0, -2.2, -2.84, -2.4, -2.24, -2.24, -0.0, -0.0, 1.08, -0.0, -0.96, -0.96, -0.0, -0.0, -0.0, -0.0, 5.8, 6.25, 6.46, 6.46, 6.46, 6.9, 6.9, 7.16, 7.57, 7.57, 8.23, 8.23, 8.58, 8.24, 8.24, 7.93, 7.3, 6.97, 6.35, 7.48, 6.83, 4.47, 5.1, 5.69, 5.75, 3.54, 1.2, -0.0, -0.0, 0.54, 0.71, 0.54, -0.0, -0.0, -1.16, -1.84, -1.84, -1.6, -1.6, -1.13, -0.59, -0.0, -0.0, 1.16, 1.8, 4.14, 4.02, 1.41, -0.0, -0.0, 1.52, 1.52, 2.8, 2.8, 3.47, 4.11, 4.89, 5.2, 6.71, 5.81, 5.36, 5.36, 5.36, 5.36, 4.02, 4.02, 4.77, 5.73, 6.45, 7.12, 9.06, 10.73, 10.6, 9.06, 6.45, 4.02, 0.79, 1.98, 1.84, 2.82, 2.82, 2.82, 1.84, -0.0, -0.0, -0.0, -2.68, -2.68, -3.13, -1.79, -0.0, -0.0, -0.96, -0.0, -0.0, 0.98, 0.99, 0.99, 5.8, 6.25, 6.25, 6.25, 6.46, 6.9, 7.16, 7.16, 7.57, 7.57, 8.23, 8.23, 8.58, 8.24, 8.24, 7.95, 7.6, 6.69, 6.98, 7.27, 5.65, 3.49, 3.21, 4.73, 5.88, 5.81, 4.47, 2.6, 1.26, 0.8, 0.8, 0.57, -0.0, -0.0, -0.65, -1.16, -1.16, -1.16, -1.13, -1.13, -0.57, -0.57, -0.0, -0.0, 1.23, 2.8, 3.0, -0.0, -0.0, -0.0, 1.4, 1.73, 3.0, 3.0, 3.47, 4.74, 5.24, 6.0, 6.71, 5.51, 3.72, 4.0, 4.34, 3.82, 3.58, 4.02, 4.34, 5.26, 5.51, 7.47, 8.91, 8.05, 3.16, 0.0, 0.0, 1.79, -0.0, -0.0, -0.0, 1.72, 2.82, 2.51, 2.99, 1.96, 2.12, 1.14, -0.0, -0.0, -1.66, -3.58, -2.98, -0.98, -0.88, -0.0, -0.0, 0.98, 1.41, 1.41, 5.8, 5.8, 5.8, 6.5, 6.5, 7.16, 7.16, 7.16, 7.57, 7.57, 7.96, 8.23, 8.59, 8.24, 7.96, 7.61, 7.32, 6.98, 7.3, 7.86, 7.44, 4.94, 3.22, 3.45, 5.08, 5.59, 5.31, 3.87, 2.24, 1.2, 0.6, 0.6, -0.0, -0.0, -0.57, -0.54, -1.2, -1.16, -1.33, -0.59, -0.57, -0.0, -0.0, -0.0, -0.0, 1.14, 1.32, -0.0, -0.0, -0.0, 1.49, 2.82, 2.66, 3.2, 3.0, 4.02, 4.74, 5.49, 6.51, 3.72, 2.2, 3.16, 3.35, 2.8, 3.13, 3.58, 3.82, 4.34, 5.26, 5.51, 7.47, 2.4, -6.45, -5.51, -4.0, -2.68, -2.8, -0.99, -0.98, -0.0, 0.89, 1.96, 1.84, 1.84, 2.83, 2.83, 1.84, 0.94, -0.0, -2.4, -4.38, -2.98, -1.13, -0.0, -0.0, 0.87, 0.98, 0.98, 6.04, 6.04, 6.04, 6.5, 6.5, 6.92, 7.16, 7.16, 7.57, 7.57, 7.96, 8.23, 8.23, 8.24, 7.96, 7.61, 7.61, 7.32, 7.6, 8.19, 8.08, 7.07, 4.94, 3.49, 4.12, 5.06, 5.29, 4.27, 2.91, 1.79, 1.2, 0.63, -0.0, -0.0, -0.0, -0.57, -0.54, -0.53, -0.61, -0.59, -0.51, -0.0, -0.0, -0.0, -0.0, -0.0, -0.0, -0.0, -0.0, -0.0, 1.32, 2.82, 2.82, 2.82, 2.66, 4.29, 3.91, 4.74, 5.72, 4.92, 1.27, 0.0, 1.9, 2.24, 2.21, 2.53, 3.72, 5.09, 4.82, 5.73, 6.64, -4.11, -6.71, -5.4, -5.09, -5.36, -4.92, -4.4, -3.79, -0.96, -0.0, -0.0, 0.83, 1.63, 2.67, 2.83, 1.95, 1.95, 2.67, 2.12, -4.77, -4.02, -2.97, -1.58, -0.0, 0.99, 0.87, 0.87, 5.83, 5.83, 5.83, 6.5, 6.5, 6.92, 7.16, 7.16, 7.57, 7.57, 7.96, 8.23, 8.23, 8.24, 7.96, 7.61, 6.97, 7.61, 7.32, 7.6, 7.86, 7.73, 7.07, 5.29, 4.12, 4.45, 4.43, 4.07, 2.79, 2.17, 1.34, 0.89, 0.89, -0.0, -0.0, -0.0, -0.0, -0.65, -0.61, -0.59, -0.0, -0.0, -0.0, -0.0, -0.0, -1.13, -1.13, -0.59, -0.0, -0.0, 0.54, 1.32, 1.49, 2.82, 2.82, 4.29, 4.29, 3.63, 5.06, 4.43, 4.02, 2.24, 2.24, -0.0, 1.27, 2.48, 3.48, 4.4, 5.26, 6.26, 6.71, 4.34, -5.36, -6.16, -5.94, -5.73, -4.47, -4.0, -4.43, -3.22, -2.47, -0.78, -0.0, 0.83, 2.99, 2.67, 1.84, 2.83, 3.4, 3.2, 2.16, -4.02, -3.58, -3.13, -0.0, -0.0, -0.0, -0.0, 5.83, 5.83, 5.83, 6.27, 6.5, 6.92, 6.92, 7.57, 7.57, 7.57, 7.96, 8.23, 8.23, 7.96, 7.6, 7.61, 6.97, 7.33, 7.32, 7.6, 7.3, 7.55, 7.44, 6.23, 5.01, 4.43, 4.12, 4.11, 3.43, 2.5, 1.7, 1.34, 0.89, 0.45, -0.0, -0.0, -0.0, -0.0, -0.0, -0.0, -0.0, -0.0, 0.57, 0.59, -0.0, -0.54, -1.2, -1.16, -0.59, -0.0, -0.0, 0.54, 1.25, 1.32, 2.54, 4.14, 4.29, 3.0, 4.02, 5.37, 5.58, 4.8, 1.6, -0.0, 1.19, 2.2, 3.79, 4.98, 5.36, 5.81, 6.26, 7.6, 2.68, -4.34, -6.0, -6.45, -5.81, -5.59, -5.58, -4.58, -3.97, -2.47, -0.0, -0.0, 0.83, 1.73, 1.84, 3.4, 3.77, 3.2, 2.99, -1.4, -4.02, -3.58, -1.9, -0.0, -0.0, -0.0, 5.83, 5.83, 6.27, 6.27, 6.5, 6.92, 6.92, 6.92, 7.57, 7.57, 7.96, 8.23, 8.23, 8.24, 7.6, 7.33, 6.97, 6.97, 7.61, 6.98, 6.98, 7.59, 7.55, 7.21, 6.23, 5.01, 4.43, 4.11, 3.48, 3.14, 2.4, 2.4, 1.7, 1.34, 0.89, 0.63, -0.0, -0.0, -0.0, -0.0, -0.0, 0.57, 1.23, 1.13, 0.54, -0.8, -1.24, -1.16, -0.57, -0.0, -0.0, -0.0, 0.55, 1.19, 2.82, 3.77, 3.91, 3.0, 2.8, 4.74, 6.08, 4.98, 5.21, 1.99, 1.52, 1.99, 4.11, 5.51, 5.73, 5.81, 6.26, 6.71, 6.26, 4.24, 2.24, -4.92, -6.71, -6.65, -6.57, -6.18, -5.49, -3.47, -1.6, -0.0, -0.0, 0.89, 2.82, 3.77, 2.82, 1.73, 1.73, 2.51, -1.19, -3.48, -2.53, -1.4, -0.0, -0.0, 5.83, 5.83, 6.27, 6.27, 6.27, 6.92, 6.92, 6.92, 7.32, 7.57, 8.23, 8.23, 7.96, 8.24, 7.6, 7.33, 7.24, 6.97, 6.97, 6.98, 6.98, 6.97, 6.97, 7.23, 6.87, 5.65, 5.01, 4.74, 4.43, 3.79, 3.43, 2.68, 2.4, 1.7, 1.34, 0.89, 0.95, 0.57, 0.54, 0.53, 0.59, 0.57, 1.08, 1.76, 1.4, -0.0, -1.34, -1.61, -1.08, -0.0, -0.0, 0.55, 1.08, 1.23, 1.73, 3.55, 3.91, 2.66, 3.72, 4.74, 5.58, 5.6, 4.11, 2.8, 2.8, 4.02, 5.51, 5.73, 6.26, 6.71, 6.71, 6.71, 6.71, 6.17, 3.22, -0.0, -4.29, -6.64, -7.54, -6.7, -6.21, -3.16, -1.61, -0.81, -0.0, 0.81, 2.4, 3.0, 1.96, 0.89, 1.73, 1.84, 1.96, -0.0, -0.98, -0.99, -0.0, -0.0, 5.86, 5.86, 6.53, 6.53, 6.94, 7.19, 7.19, 7.59, 7.59, 7.59, 8.23, 8.23, 8.24, 8.24, 7.6, 7.33, 7.61, 6.97, 6.97, 6.98, 6.98, 6.69, 6.97, 6.95, 6.92, 6.59, 6.23, 5.06, 4.74, 4.11, 3.48, 3.35, 2.68, 2.0, 1.7, 1.34, 1.2, 1.26, 1.24, 1.2, 0.61, 0.59, 1.23, 1.72, 1.98, 1.58, -0.0, -0.57, -0.0, -0.0, 0.61, 1.08, 1.23, 1.76, 1.76, 2.22, 3.2, 3.91, 3.97, 5.06, 5.58, 5.37, 3.91, 3.0, 3.72, 4.89, 6.0, 6.26, 6.2, 6.45, 6.64, 6.64, 6.64, 4.92, 0.96, -0.0, -0.0, -1.99, -5.94, -7.1, -6.88, -3.64, -2.53, -0.54, -0.0, -0.0, 0.96, 1.84, 0.89, 0.95, 1.84, 1.84, 2.47, 2.35, 0.88, -0.0, -0.0, -0.0, 5.86, 5.86, 6.29, 6.53, 6.94, 6.94, 7.19, 7.59, 7.59, 7.59, 7.59, 7.96, 8.24, 7.96, 7.6, 7.33, 7.61, 6.97, 6.71, 6.7, 6.63, 6.69, 6.97, 6.67, 6.95, 6.92, 6.28, 5.98, 5.35, 4.94, 4.65, 4.0, 3.35, 2.91, 2.6, 1.79, 1.79, 1.86, 1.58, 1.2, 1.16, 1.13, 0.66, 1.23, 2.2, 3.63, 2.2, 0.59, 1.14, 1.7, 2.44, 2.22, 1.76, 2.0, 2.23, 2.23, 2.23, 3.15, 4.58, 5.06, 5.49, 5.58, 4.74, 3.72, 4.89, 4.89, 6.0, 7.45, 5.4, 5.24, 5.58, 5.94, 5.81, 3.13, -2.48, -3.22, -0.95, -0.0, -2.16, -5.6, -6.45, -3.39, -2.68, -1.58, -0.57, -0.0, 0.79, 0.88, 0.88, 0.88, 1.83, 2.16, 3.22, 3.55, 2.47, 1.83, 1.13, 1.13, 6.29, 6.29, 6.29, 6.53, 6.94, 6.94, 7.33, 7.33, 7.59, 7.59, 7.96, 7.96, 8.24, 7.96, 8.24, 7.61, 7.61, 6.71, 6.7, 6.63, 6.35, 6.97, 6.97, 6.97, 6.95, 6.92, 6.59, 6.28, 5.93, 5.35, 5.29, 4.65, 4.0, 3.6, 2.91, 2.68, 2.24, 2.17, 1.9, 1.88, 1.61, 1.84, 1.13, 1.13, 1.8, 2.99, 3.0, 2.36, 2.4, 2.44, 2.48, 2.48, 2.23, 2.23, 2.23, 2.51, 2.51, 2.84, 3.43, 4.74, 5.49, 5.49, 5.84, 5.58, 5.37, 5.4, 5.51, 6.94, 6.26, 4.43, 3.48, 4.92, 5.73, 2.8, -4.77, -4.89, -3.22, -0.0, -0.95, -3.22, -5.09, -5.36, -3.13, -2.17, -1.2, -0.0, 0.6, 3.35, 2.98, 2.21, 0.99, 1.8, 2.76, 3.22, 3.11, 2.6, 2.0, 2.0, 6.29, 6.29, 6.29, 6.29, 6.94, 6.94, 7.33, 7.6, 7.6, 7.87, 8.24, 8.24, 8.24, 8.24, 7.95, 7.61, 7.33, 6.98, 6.63, 6.35, 6.97, 6.97, 6.97, 6.97, 6.95, 6.95, 6.92, 6.28, 7.06, 5.06, 5.01, 4.71, 4.55, 3.88, 3.82, 3.09, 3.13, 2.63, 2.4, 2.5, 2.21, 1.84, 1.84, 1.84, 1.84, 2.23, 3.16, 3.48, 3.16, 3.16, 2.84, 2.84, 2.84, 2.84, 2.84, 2.84, 2.84, 2.84, 3.14, 3.43, 5.58, 6.6, 6.57, 6.16, 5.94, 5.73, 5.26, 6.94, 6.94, 6.26, 4.0, 4.98, 7.47, 6.26, -3.2, -5.94, -4.29, -2.2, -2.16, -1.7, -3.48, -4.47, -4.92, -2.24, -1.34, 0.45, 0.89, 2.24, 4.92, 3.13, -0.0, -0.0, 1.66, 2.76, 3.47, 3.22, 1.83, 1.83, 6.29, 6.29, 6.29, 6.96, 6.96, 7.22, 7.6, 7.6, 7.6, 7.6, 7.96, 7.96, 7.96, 8.24, 7.95, 7.61, 7.32, 6.98, 6.69, 6.97, 6.97, 6.97, 6.97, 6.97, 7.55, 6.95, 6.92, 6.59, 6.23, 6.73, 4.43, 4.12, 4.41, 4.0, 4.11, 3.53, 3.13, 3.13, 2.91, 2.68, 2.79, 2.53, 2.23, 2.23, 2.53, 2.79, 3.14, 3.35, 3.35, 3.14, 2.84, 2.84, 2.84, 2.84, 3.14, 3.35, 3.35, 3.35, 3.35, 3.35, 4.27, 6.57, 7.47, 5.94, 5.94, 5.26, 5.26, 5.73, 7.45, 7.06, 5.49, 5.49, 6.88, 6.71, 3.13, -5.26, -5.73, -4.57, -3.58, -2.68, -2.0, -2.98, -4.02, -4.38, -1.7, -0.63, 0.63, 2.17, 5.81, 4.47, -0.0, -1.2, -0.0, 1.66, 2.76, 3.0, 2.6, 2.6, 6.56, 6.56, 6.56, 6.96, 6.96, 6.96, 7.6, 7.6, 7.6, 7.6, 7.96, 7.96, 8.24, 8.24, 8.24, 7.61, 7.3, 6.69, 6.97, 6.97, 6.97, 7.27, 7.27, 7.55, 7.55, 7.23, 7.51, 6.92, 7.44, 6.7, 5.29, 4.11, 3.79, 4.0, 3.88, 3.87, 3.53, 3.58, 3.09, 3.32, 3.07, 2.79, 3.14, 3.14, 3.35, 3.6, 3.6, 3.6, 3.6, 3.14, 3.14, 3.14, 3.14, 3.35, 3.35, 3.35, 3.35, 3.6, 3.72, 3.72, 7.06, 6.52, 7.06, 6.64, 5.51, 5.26, 4.82, 5.26, 6.51, 6.94, 5.58, 7.47, 7.45, 7.15, 6.26, -0.0, -4.92, -5.81, -4.85, -4.0, -1.98, -1.98, -2.97, -4.02, -3.9, -0.99, 0.57, 2.15, 5.73, 4.47, 1.9, -2.21, -1.2, -0.0, 1.66, 3.22, 3.22, 3.22, 6.56, 6.56, 6.56, 6.96, 6.96, 6.96, 7.33, 7.33, 7.6, 7.6, 8.24, 8.24, 8.24, 8.24, 8.24, 7.6, 7.3, 7.28, 6.97, 6.97, 7.27, 7.27, 7.55, 7.55, 7.55, 7.55, 7.51, 7.51, 7.44, 7.35, 6.95, 5.75, 4.65, 4.0, 3.88, 3.87, 3.98, 3.58, 3.53, 3.82, 3.6, 3.6, 3.72, 3.88, 4.11, 3.87, 3.87, 3.6, 3.6, 3.2, 3.07, 3.07, 3.45, 3.6, 3.6, 3.6, 3.6, 3.7, 3.7, 4.11, 3.88, 6.9, 7.06, 7.06, 6.51, 6.07, 4.98, 4.98, 5.7, 5.51, 5.59, 7.45, 7.45, 7.15, 7.54, 6.36, 2.68, -4.77, -5.81, -5.26, -2.98, -2.21, -2.53, -3.39, -3.13, -0.99, 0.43, 4.4, 4.92, 4.47, 2.8, -0.0, -3.2, -1.2, -0.0, 2.0, 2.6, 2.6, 6.56, 6.56, 6.56, 6.96, 6.96, 6.96, 7.33, 7.33, 7.61, 7.61, 7.95, 7.95, 7.95, 8.24, 7.93, 8.22, 7.3, 7.59, 7.59, 7.27, 7.27, 7.55, 7.55, 7.55, 7.55, 7.55, 7.85, 7.51, 7.8, 7.72, 7.61, 7.31, 6.51, 5.4, 5.09, 4.77, 4.44, 4.47, 4.47, 4.34, 4.3, 4.11, 4.4, 4.6, 4.34, 4.3, 3.87, 3.82, 3.39, 3.2, 3.07, 3.07, 3.07, 3.2, 3.6, 3.6, 3.6, 3.7, 3.87, 4.3, 4.3, 4.6, 7.63, 6.88, 6.64, 6.51, 5.26, 5.26, 5.26, 5.29, 7.15, 6.17, 7.94, 7.54, 7.6, 7.6, 6.26, 0.0, -4.82, -5.09, -3.6, -2.98, -2.53, -1.98, -1.9, 1.34, 2.68, 4.02, 4.34, 3.72, 2.84, -0.0, -2.53, -2.53, -0.99, -0.0, 2.53, 2.53, 6.56, 6.56, 6.56, 6.96, 6.96, 6.96, 7.33, 7.61, 7.61, 7.61, 7.95, 7.95, 8.24, 7.93, 7.93, 8.22, 7.6, 7.59, 7.59, 7.59, 7.59, 8.15, 8.15, 7.81, 7.81, 8.08, 8.08, 7.73, 8.0, 7.64, 8.15, 8.0, 7.31, 7.21, 6.47, 5.7, 5.34, 5.36, 4.92, 4.89, 4.77, 4.6, 5.02, 6.16, 4.19, 4.3, 3.87, 3.82, 3.39, 3.2, 3.07, 3.2, 3.2, 3.6, 3.6, 3.6, 3.87, 3.87, 4.3, 4.3, 4.34, 4.34, 7.94, 7.08, 7.08, 7.01, 5.36, 5.36, 5.36, 5.36, 5.81, 5.73, 7.6, 8.49, 6.71, 6.45, 5.51, 2.68, -3.48, -4.22, -3.6, -2.98, -1.98, -1.98, -0.0, -0.0, 2.21, 3.35, 4.0, 3.72, 3.35, 1.6, -1.6, -2.84, -1.6, -0.0, 0.99, 1.8, 6.31, 6.31, 6.56, 6.96, 6.96, 6.96, 7.24, 7.61, 7.61, 7.95, 7.95, 7.93, 7.93, 7.93, 8.22, 7.9, 7.9, 8.19, 7.59, 7.86, 7.86, 8.15, 8.15, 8.15, 8.08, 8.08, 8.08, 8.08, 8.0, 8.27, 7.9, 7.76, 7.81, 7.51, 7.26, 7.06, 6.68, 6.26, 5.81, 5.78, 5.33, 5.24, 5.09, 6.57, 4.9, 4.6, 4.3, 3.82, 3.2, 3.6, 3.35, 3.35, 3.6, 3.6, 3.7, 3.87, 3.87, 3.87, 4.43, 4.43, 4.44, 4.44, 7.5, 6.64, 6.71, 7.15, 6.26, 5.36, 5.36, 5.36, 5.36, 6.71, 7.6, 6.71, 5.81, 3.48, 2.84, -2.68, -3.58, -3.58, -2.53, -1.98, -2.23, -2.23, -0.0, 0.99, 2.6, 3.82, 4.34, 3.82, 3.35, 2.53, -0.0, -2.84, -1.6, -0.0, -0.0, 0.99, 6.31, 6.31, 6.31, 6.7, 6.7, 6.97, 7.24, 7.61, 7.61, 7.61, 7.93, 7.93, 7.93, 7.93, 8.22, 7.9, 7.9, 7.9, 8.19, 7.86, 7.86, 8.15, 8.15, 8.15, 8.44, 8.08, 8.08, 8.37, 8.0, 8.27, 7.9, 8.15, 8.0, 7.81, 7.69, 7.4, 7.06, 6.68, 6.26, 5.81, 5.78, 5.34, 5.24, 5.09, 7.12, 5.51, 4.6, 4.11, 3.72, 4.27, 4.27, 4.4, 4.6, 4.11, 4.11, 4.3, 4.3, 4.44, 4.44, 4.44, 4.47, 4.92, 5.33, 8.05, 7.6, 7.15, 5.36, 5.36, 5.26, 5.26, 5.36, 5.81, 7.15, 7.6, 5.81, 0.0, -3.16, -4.47, -4.47, -3.39, -2.8, -1.98, -2.84, -2.23, -0.0, 1.4, 2.97, 4.02, 3.82, 3.82, 3.35, 2.53, -0.0, -2.53, -1.6, -0.0, -0.0, -0.0, 6.31, 6.31, 6.31, 6.31, 6.97, 6.97, 6.97, 7.33, 7.33, 7.61, 7.93, 7.93, 7.93, 7.93, 8.22, 7.9, 7.9, 7.9, 8.19, 8.19, 8.19, 8.73, 8.38, 8.38, 8.38, 8.65, 8.29, 8.55, 8.55, 8.27, 8.15, 8.15, 8.0, 7.81, 7.58, 7.26, 7.07, 7.13, 6.68, 6.26, 6.26, 5.81, 5.34, 5.33, 5.7, 7.37, 5.31, 4.8, 4.55, 5.08, 5.31, 4.9, 5.09, 4.6, 4.77, 4.77, 4.77, 4.44, 4.44, 4.47, 4.47, 4.47, 7.6, 7.6, 7.6, 7.15, 5.81, 5.81, 4.82, 5.26, 5.81, 5.81, 7.15, 7.15, 5.94, 4.02, -4.4, -4.98, -4.77, -3.82, -2.4, -2.68, -2.95, -2.68, -0.0, 1.13, 2.84, 3.35, 3.35, 3.35, 3.35, 2.84, -0.0, -3.2, -3.2, -0.0, -0.0, -0.0, 6.58, 6.58, 6.58, 6.58, 6.97, 6.97, 6.97, 7.33, 7.61, 7.61, 7.93, 7.93, 7.93, 8.22, 8.22, 7.9, 7.9, 7.9, 7.9, 8.19, 8.45, 8.73, 8.73, 8.73, 8.38, 8.65, 8.65, 8.55, 8.55, 8.43, 8.68, 8.15, 8.0, 7.81, 8.0, 7.69, 7.4, 7.07, 6.68, 6.71, 6.26, 6.26, 5.81, 5.78, 5.78, 6.23, 6.04, 5.81, 5.81, 5.57, 5.57, 5.57, 5.67, 5.24, 5.24, 4.89, 4.88, 4.92, 4.92, 4.92, 4.92, 4.92, 5.36, 8.05, 7.6, 7.6, 6.51, 5.81, 4.77, 5.36, 5.81, 5.73, 7.01, 5.81, 6.94, 5.51, 1.4, -0.0, -3.13, -2.68, -0.99, -1.55, -2.76, -2.68, -0.87, -0.0, 1.83, 2.2, 2.0, 2.48, 2.48, 2.48, -0.0, -1.6, -2.21, -0.0, -0.0, -0.0, 6.33, 6.33, 6.33, 6.33, 6.71, 6.97, 6.97, 7.26, 7.61, 7.61, 7.61, 7.93, 7.93, 8.22, 8.22, 7.9, 7.9, 7.9, 7.9, 8.19, 8.45, 8.73, 8.73, 8.73, 8.73, 8.65, 8.65, 8.93, 8.55, 8.43, 8.68, 8.28, 8.0, 8.22, 8.0, 7.74, 7.4, 7.51, 7.07, 6.68, 6.71, 6.71, 6.26, 6.26, 6.26, 6.23, 6.23, 6.16, 6.14, 5.7, 5.7, 5.7, 5.7, 5.34, 5.33, 5.33, 4.92, 4.92, 4.92, 4.92, 4.92, 4.92, 5.36, 8.05, 7.94, 7.45, 7.01, 5.81, 4.92, 5.36, 5.81, 6.17, 6.17, 6.2, 6.26, 6.16, 6.6, 6.6, 5.58, 4.11, 2.99, -0.0, -2.95, -3.16, -1.8, -0.0, 0.96, 1.83, 1.19, -0.0, -0.0, 1.08, -0.0, -2.53, -1.9, -0.0, -0.0, -0.0, 6.33, 6.33, 6.33, 6.33, 6.33, 6.71, 6.98, 6.98, 7.32, 7.61, 7.61, 7.93, 8.22, 8.22, 8.22, 7.9, 7.9, 7.9, 7.9, 8.19, 8.45, 8.45, 8.73, 8.73, 8.73, 9.01, 8.65, 8.93, 8.55, 8.82, 8.43, 8.28, 8.51, 8.22, 8.0, 8.17, 7.74, 7.4, 7.51, 7.13, 7.15, 6.71, 6.71, 6.71, 6.26, 6.26, 6.23, 6.23, 5.78, 5.78, 5.78, 5.78, 5.78, 5.78, 5.36, 5.36, 5.36, 4.92, 4.92, 4.92, 4.92, 5.33, 5.33, 5.36, 8.49, 7.94, 7.45, 6.17, 5.36, 5.29, 6.94, 5.51, 6.17, 6.64, 6.71, 6.88, 7.12, 7.76, 7.82, 7.58, 5.84, 0.98, -2.84, -3.93, -2.68, -0.87, -0.0, 1.08, -0.0, -0.0, -0.0, -0.0, -0.0, -2.21, -1.9, -0.0, -0.0, -0.0, 6.33, 6.33, 6.33, 6.33, 6.33, 6.98, 6.98, 6.98, 7.32, 7.32, 7.61, 7.93, 8.22, 8.22, 8.22, 7.9, 7.9, 7.9, 7.9, 8.19, 8.45, 8.45, 8.73, 8.73, 8.73, 9.21, 8.65, 8.93, 8.55, 8.82, 8.43, 8.68, 8.51, 8.3, 8.42, 8.0, 7.74, 7.84, 7.51, 7.13, 7.13, 7.15, 7.15, 6.71, 6.71, 6.26, 6.26, 6.26, 6.26, 5.81, 5.81, 5.81, 5.81, 5.81, 5.81, 5.36, 5.36, 5.36, 5.36, 5.36, 5.33, 5.33, 5.33, 5.78, 5.81, 8.49, 8.05, 6.26, 6.26, 6.17, 5.94, 6.17, 6.2, 6.71, 6.71, 7.08, 7.37, 7.85, 8.06, 7.76, 7.2, 2.48, -4.4, -4.22, -3.16, -1.98, -0.87, -0.0, -0.0, -0.0, -0.0, -0.0, -0.0, -2.21, -2.21, -2.21, -2.21, -2.21, 6.61, 6.61, 6.61, 6.61, 6.98, 6.98, 6.98, 6.98, 6.98, 7.32, 7.32, 7.61, 8.22, 8.22, 7.9, 7.9, 7.9, 7.9, 8.19, 8.19, 8.45, 8.45, 8.73, 8.73, 8.73, 9.01, 8.65, 8.93, 8.55, 8.82, 8.68, 8.68, 8.51, 8.3, 8.22, 8.0, 7.74, 7.87, 7.51, 7.51, 7.13, 7.13, 7.15, 6.71, 6.71, 6.71, 6.26, 6.26, 6.26, 5.81, 5.81, 5.81, 5.81, 5.81, 5.36, 5.36, 5.36, 5.36, 5.33, 5.33, 5.33, 5.33, 5.24, 5.34, 5.78, 8.49, 7.6, 7.15, 7.15, 6.17, 6.17, 6.17, 6.26, 6.71, 6.71, 7.15, 7.15, 8.0, 7.85, 8.06, 7.12, 3.2, -5.36, -5.75, -4.22, -2.68, -1.8, -0.87, -1.27, -0.0, -0.0, -0.0, -1.4, -2.21, -2.21, -2.21, -2.21, -2.21, 6.61, 6.61, 6.61, 6.7, 6.7, 6.7, 6.7, 6.98, 6.98, 7.32, 7.32, 7.6, 7.6, 7.9, 7.9, 7.9, 7.9, 8.19, 8.19, 8.19, 8.19, 8.45, 8.73, 8.73, 8.73, 8.65, 8.65, 8.93, 8.55, 8.43, 8.68, 8.28, 8.51, 8.3, 8.22, 8.0, 7.74, 7.87, 7.4, 7.51, 7.51, 7.13, 7.13, 7.15, 6.71, 6.71, 6.26, 6.26, 6.26, 6.26, 5.81, 5.81, 5.81, 5.81, 5.81, 5.36, 5.34, 5.33, 5.33, 5.33, 5.33, 5.24, 5.24, 5.24, 5.24, 8.05, 7.6, 7.15, 7.15, 6.26, 6.26, 6.26, 6.71, 6.71, 6.71, 6.71, 7.15, 7.54, 7.85, 7.63, 7.12, 3.58, -5.4, -6.71, -5.75, -3.79, -2.0, -1.8, -1.9, -1.2, -1.6, -1.27, -1.27, -1.6, -2.21, -2.21, -2.21, -2.21, 6.7, 6.7, 6.7, 6.7, 6.7, 6.7, 6.7, 6.7, 6.98, 7.32, 7.6, 7.6, 7.6, 7.9, 7.9, 7.9, 8.19, 8.19, 8.19, 8.19, 8.19, 8.73, 8.73, 8.73, 8.65, 8.65, 8.93, 8.55, 8.82, 8.43, 8.68, 8.28, 8.51, 8.22, 8.22, 8.0, 7.74, 7.69, 7.4, 7.51, 7.51, 7.13, 7.13, 7.13, 6.68, 6.71, 6.26, 6.26, 6.26, 6.26, 6.26, 5.81, 5.81, 5.81, 5.78, 5.78, 5.34, 5.33, 5.33, 5.24, 5.24, 5.24, 5.24, 5.09, 5.09, 7.37, 7.1, 6.65, 6.2, 6.2, 6.2, 6.02, 6.64, 6.64, 6.71, 6.71, 6.71, 7.1, 7.37, 7.12, 7.12, 5.36, -1.27, -6.26, -6.44, -4.43, -1.8, -0.99, -2.4, -2.97, -2.53, -1.27, -1.13, -1.6, -1.4, -2.53, -2.53, -2.53, 6.7, 6.98, 6.98, 6.98, 6.98, 6.98, 6.98, 6.98, 6.98, 7.6, 7.6, 7.6, 7.6, 7.6, 7.9, 8.19, 8.19, 8.19, 8.19, 8.19, 8.19, 8.73, 8.38, 8.65, 8.65, 8.93, 8.55, 8.55, 8.43, 8.43, 8.28, 8.51, 8.4, 8.22, 7.81, 8.0, 7.74, 7.69, 7.4, 7.4, 7.51, 7.07, 7.07, 7.13, 6.68, 6.68, 6.68, 6.26, 6.26, 6.26, 6.26, 6.26, 6.23, 5.78, 5.78, 5.78, 5.78, 5.26, 5.24, 5.24, 5.24, 5.24, 5.51, 5.09, 5.51, 7.37, 7.54, 7.1, 6.64, 6.45, 5.6, 5.6, 5.6, 6.64, 6.26, 6.26, 6.64, 6.64, 6.94, 6.94, 6.94, 7.15, 4.47, -3.48, -6.11, -3.48, -1.8, -1.13, -2.21, -3.39, -3.39, -2.8, -1.58, -2.21, -1.6, -2.84, -2.84, -2.84, 6.98, 6.98, 6.98, 6.98, 6.98, 6.98, 6.98, 6.98, 6.98, 6.98, 7.3, 7.6, 7.6, 7.6, 7.9, 8.19, 8.19, 8.19, 8.19, 8.19, 8.15, 8.15, 8.65, 8.65, 8.29, 8.55, 8.55, 8.43, 8.43, 8.68, 8.15, 8.4, 8.0, 8.22, 7.81, 8.0, 7.69, 7.69, 7.4, 7.4, 7.4, 7.51, 7.07, 7.06, 7.13, 6.68, 6.68, 6.68, 6.23, 6.23, 6.23, 6.23, 6.23, 6.23, 5.78, 5.78, 5.7, 5.7, 5.7, 5.24, 5.24, 5.51, 5.57, 5.51, 5.31, 5.57, 8.0, 7.55, 6.94, 6.45, 5.6, 4.89, 4.89, 4.11, 6.17, 6.26, 6.26, 6.64, 7.08, 7.1, 7.1, 7.1, 4.4, -2.16, -4.11, -3.48, -2.68, -1.98, -1.98, -2.98, -3.39, -3.13, -3.13, -2.21, -2.53, -2.23, -2.23, -2.23, 6.98, 6.98, 6.98, 6.98, 6.98, 6.98, 6.98, 6.98, 6.98, 6.98, 7.3, 7.3, 7.3, 7.59, 7.59, 7.86, 7.86, 7.86, 7.86, 8.15, 8.15, 8.15, 8.08, 8.08, 8.37, 8.55, 8.43, 8.43, 8.68, 8.15, 8.15, 8.4, 8.0, 7.81, 7.81, 7.51, 7.69, 7.69, 7.4, 7.4, 7.4, 7.51, 7.07, 7.07, 7.06, 6.68, 6.68, 6.68, 6.68, 6.68, 6.23, 6.23, 6.23, 6.16, 6.14, 5.7, 5.7, 5.7, 5.7, 5.57, 5.51, 5.57, 5.57, 5.57, 5.31, 5.4, 7.85, 8.0, 8.0, 7.1, 6.64, 5.94, 4.65, 3.22, 5.4, 5.73, 6.26, 6.71, 6.71, 6.71, 7.15, 7.1, 2.84, -5.95, -4.19, -3.93, -3.58, -2.84, -2.84, -3.35, -3.39, -2.97, -3.58, -3.2, -2.84, -2.48, -2.48, -2.48, 6.35, 6.35, 6.69, 6.98, 6.98, 6.98, 6.98, 6.98, 6.98, 6.98, 7.3, 7.3, 7.59, 7.59, 7.59, 7.59, 7.86, 8.15, 8.15, 8.15, 8.15, 8.15, 8.08, 8.37, 8.0, 8.0, 8.27, 8.27, 8.15, 8.15, 8.4, 8.0, 8.22, 7.81, 8.0, 7.58, 7.69, 7.69, 7.69, 7.4, 7.4, 7.4, 7.51, 7.07, 7.06, 7.06, 6.61, 6.68, 6.68, 6.68, 6.68, 6.68, 6.16, 6.16, 6.16, 6.14, 5.7, 5.7, 5.57, 5.57, 5.57, 5.57, 5.57, 5.57, 5.31, 5.4, 5.57, 5.79, 8.94, 8.49, 8.05, 7.15, 6.26, 4.82, 4.34, 5.26, 5.81, 6.26, 6.71, 6.26, 6.64, 6.16, -5.4, -7.37, -5.51, -4.22, -4.22, -4.0, -4.0, -3.6, -3.6, -3.39, -3.2, -3.6, -2.84, -2.48, -2.48, -2.48, 6.35, 6.35, 6.69, 6.69, 6.69, 6.98, 7.28, 7.28, 7.59, 7.59, 7.59, 7.59, 7.59, 7.59, 7.59, 7.59, 7.88, 8.15, 8.15, 7.81, 8.08, 8.08, 8.08, 8.0, 8.0, 8.27, 7.9, 7.9, 8.15, 8.15, 8.0, 8.0, 8.22, 7.81, 8.0, 7.58, 7.69, 7.69, 7.69, 7.69, 7.4, 7.4, 7.4, 6.97, 7.06, 7.06, 6.61, 6.61, 6.61, 6.61, 6.61, 6.61, 6.6, 6.16, 6.16, 6.14, 5.57, 5.57, 5.57, 5.57, 5.57, 5.57, 5.4, 5.4, 5.4, 5.2, 5.81, 6.16, 8.45, 8.49, 8.49, 8.05, 7.6, 6.71, 5.81, 5.36, 5.73, 6.26, 6.26, 6.17, 5.6, 5.15, -2.23, -6.94, -6.94, -5.6, -4.98, -4.98, -4.15, -4.15, -3.9, -3.39, -3.6, -3.6, -2.84, -2.23, -2.23, -2.23, 6.35, 6.35, 6.69, 6.69, 6.97, 6.97, 6.97, 6.97, 7.59, 7.59, 7.27, 7.27, 7.27, 7.27, 7.27, 7.55, 7.55, 7.55, 7.81, 8.08, 8.08, 8.08, 8.37, 8.0, 8.27, 7.9, 7.9, 8.15, 8.15, 8.15, 8.0, 8.0, 8.22, 7.81, 8.0, 8.0, 7.51, 7.69, 7.74, 7.69, 7.69, 7.4, 7.4, 7.4, 6.94, 7.06, 7.06, 6.61, 6.61, 6.61, 6.61, 6.61, 6.6, 6.6, 6.16, 6.04, 5.99, 5.57, 5.57, 5.57, 5.4, 5.4, 5.4, 5.4, 5.4, 5.6, 5.6, 5.81, 6.04, 8.9, 8.45, 8.0, 7.6, 7.15, 6.26, 5.81, 5.73, 6.26, 6.26, 5.94, 4.89, 5.49, 2.99, -4.11, -7.12, -6.45, -5.09, -5.09, -4.85, -4.82, -4.38, -3.58, -2.97, -3.2, -2.84, -2.23, -2.23, -2.23, 6.35, 6.35, 6.35, 6.97, 6.97, 6.97, 6.97, 6.97, 7.27, 7.27, 7.27, 7.27, 7.27, 7.55, 7.55, 7.55, 7.55, 7.55, 7.85, 8.08, 7.73, 8.0, 8.0, 8.27, 8.27, 7.9, 8.15, 8.15, 8.15, 8.0, 8.0, 8.0, 8.22, 7.81, 7.81, 8.0, 7.58, 7.58, 7.58, 7.69, 7.69, 7.26, 7.4, 7.4, 6.94, 6.94, 6.94, 7.06, 7.06, 7.06, 7.06, 6.51, 6.47, 6.47, 6.47, 6.04, 5.99, 5.99, 5.99, 5.4, 5.4, 5.4, 5.4, 5.4, 5.31, 5.47, 5.47, 5.47, 5.81, 8.06, 8.29, 7.85, 7.54, 7.08, 6.71, 6.17, 5.94, 6.17, 6.26, 6.17, 5.24, 5.49, 5.06, -0.96, -6.21, -6.45, -5.59, -5.29, -4.85, -4.92, -4.47, -4.02, -3.58, -3.82, -2.84, -2.48, -2.48, -2.48, 6.08, 6.08, 6.64, 6.97, 6.97, 6.97, 6.97, 6.97, 6.97, 7.27, 7.27, 7.55, 7.55, 7.55, 7.55, 7.23, 7.23, 7.51, 7.51, 7.51, 8.0, 8.0, 8.0, 8.27, 7.9, 7.9, 8.15, 8.15, 8.15, 8.0, 8.0, 8.0, 8.22, 7.81, 7.81, 8.0, 8.0, 8.0, 7.58, 7.51, 7.69, 7.26, 7.26, 7.4, 6.94, 6.94, 6.94, 6.94, 6.94, 6.94, 6.94, 6.51, 6.51, 6.47, 6.47, 6.47, 6.04, 5.99, 5.81, 5.81, 5.4, 5.4, 5.81, 5.81, 5.47, 5.47, 5.47, 5.47, 5.6, 8.06, 8.06, 8.29, 7.54, 7.15, 6.71, 6.2, 6.17, 5.73, 5.81, 5.94, 6.0, 6.57, 5.49, -0.0, -5.58, -6.64, -6.17, -5.31, -5.36, -4.92, -4.47, -4.02, -3.47, -3.35, -2.84, -2.23, -2.23, -2.23, 6.35, 6.35, 6.35, 6.35, 6.97, 6.97, 6.97, 6.97, 6.97, 7.27, 7.55, 7.55, 7.55, 7.23, 7.23, 7.51, 7.51, 7.51, 7.51, 7.51, 7.8, 7.8, 8.0, 8.27, 7.9, 7.9, 8.15, 8.15, 8.15, 8.4, 8.0, 8.0, 8.0, 8.22, 7.81, 7.81, 8.0, 8.0, 7.58, 7.51, 7.69, 7.26, 7.26, 7.26, 7.37, 6.94, 6.94, 6.94, 6.94, 6.94, 6.94, 6.94, 6.51, 6.47, 6.47, 6.47, 6.3, 5.88, 5.81, 5.81, 5.81, 5.81, 5.81, 5.81, 5.6, 5.47, 5.21, 4.84, 5.21, 6.1, 6.94, 8.9, 8.49, 7.6, 7.6, 7.6, 7.15, 6.71, 5.81, 5.94, 6.36, 6.45, 5.58, 1.05, -5.6, -7.15, -6.71, -5.81, -5.36, -4.92, -4.92, -4.38, -3.9, -3.35, -2.84, -1.27, -1.27, -1.27, 6.0, 6.0, 6.35, 6.35, 6.35, 6.67, 6.97, 6.97, 6.97, 7.27, 7.55, 7.55, 7.23, 7.23, 7.51, 7.51, 7.51, 7.51, 7.51, 7.44, 7.44, 7.44, 7.44, 7.9, 7.9, 7.9, 8.15, 8.15, 8.15, 8.4, 8.0, 8.0, 8.0, 8.22, 7.81, 7.81, 8.0, 8.0, 8.0, 7.51, 7.69, 7.69, 7.26, 7.26, 7.26, 7.37, 6.94, 6.94, 6.94, 6.94, 6.94, 6.94, 6.51, 6.47, 6.47, 6.3, 6.3, 6.3, 5.81, 5.81, 5.81, 5.81, 5.81, 5.6, 5.6, 5.6, 5.21, 4.84, 5.47, 6.0, 6.79, 9.24, 8.49, 8.94, 7.54, 8.0, 8.05, 6.71, 6.26, 6.26, 6.2, 5.94, 6.0, 2.99, -3.22, -7.15, -7.1, -6.71, -5.81, -5.36, -5.36, -4.92, -4.02, -3.39, -2.4, -1.2, -1.2, -1.2, 5.72, 5.72, 5.72, 6.35, 6.35, 6.35, 6.67, 6.95, 6.95, 6.95, 6.95, 7.23, 7.23, 7.51, 7.51, 7.51, 7.51, 7.51, 7.44, 7.44, 7.44, 7.44, 7.44, 7.72, 7.9, 7.9, 8.15, 8.15, 8.15, 8.0, 8.0, 8.0, 8.0, 8.22, 7.81, 7.81, 8.0, 8.0, 8.0, 7.51, 7.69, 7.69, 7.26, 7.26, 7.26, 7.26, 7.26, 7.37, 6.94, 6.94, 6.94, 6.94, 6.94, 6.36, 6.3, 6.3, 6.3, 6.3, 6.3, 5.81, 5.81, 5.81, 5.6, 5.6, 5.6, 5.6, 5.21, 4.84, 5.08, 5.6, 6.3, 6.94, 6.71, 9.39, 7.6, 8.05, 7.6, 6.71, 6.26, 5.81, 6.26, 6.17, 5.6, 4.43, 1.05, -4.8, -7.15, -7.1, -6.71, -6.26, -5.81, -5.36, -4.02, -3.13, -2.68, -2.21, -2.21, -2.21, 5.72, 5.72, 5.72, 6.35, 6.35, 6.35, 6.67, 6.95, 6.95, 6.95, 6.95, 7.23, 7.23, 7.51, 7.51, 7.51, 7.51, 7.51, 7.44, 7.44, 7.44, 7.44, 7.44, 7.72, 7.9, 7.9, 8.15, 8.15, 8.15, 8.0, 8.0, 8.0, 8.0, 8.22, 7.81, 7.81, 8.0, 8.0, 8.0, 7.51, 7.69, 7.69, 7.26, 7.26, 7.26, 7.26, 7.26, 7.37, 6.94, 6.94, 6.94, 6.94, 6.94, 6.36, 6.3, 6.3, 6.3, 6.3, 6.3, 5.81, 5.81, 5.81, 5.6, 5.6, 5.6, 5.6, 5.21, 4.84, 5.08, 5.6, 6.3, 6.94, 6.71, 9.39, 7.6, 8.05, 7.15, 6.71, 6.26, 5.81, 6.26, 6.17, 5.37, 4.89, 3.91, 1.05, -3.48, -6.71, -7.15, -6.26, -5.81, -5.26, -4.77, -4.02, -3.58, -3.2, -3.2, -3.2]}, {"header": {"dx": 0.06612293990616946, "dy": 0.0552356325346848, "nx": 98, "ny": 59, "la1": 35.046912555036876, "la2": 31.78801023549047, "lo1": -121.43107172385933, "lo2": -114.95102361305473, "refTime": "2026041519", "parameterCategory": 1, "parameterNumber": 3}, "data": [-11.5, -10.96, -10.41, -9.3, -8.38, -7.55, -6.64, -5.72, -5.36, -4.45, -3.81, -2.73, -2.57, -1.75, -1.75, -0.89, -1.96, -3.79, -5.81, -5.81, -5.51, -5.94, -4.4, -4.0, -4.34, -4.0, -4.0, -4.4, -4.57, -5.26, -5.26, -5.36, -5.36, -5.26, -5.51, -5.6, -5.6, -5.37, -4.54, -4.11, -2.6, -3.0, -4.14, -4.2, -5.32, -4.25, -4.44, -4.07, -3.49, -2.57, -0.89, 0.0, 0.84, 2.67, 4.42, 5.24, 5.24, 4.68, 4.42, 3.77, 3.77, 3.55, 3.72, 3.72, 3.0, 2.82, 2.82, 2.82, 2.67, 2.67, 1.96, 1.84, 1.03, 0.96, 1.05, 1.05, 1.05, 0.0, 0.0, 0.0, 0.0, -2.68, -2.68, -1.9, 0.0, 0.0, 0.0, 1.05, 6.0, 8.9, 9.35, 9.21, 8.56, 7.76, 7.2, 6.18, 6.21, 7.54, -11.88, -11.34, -10.41, -9.86, -8.94, -8.15, -7.23, -6.34, -5.72, -5.1, -4.05, -4.34, -3.45, -3.27, -2.46, -2.33, -1.84, -3.2, -5.94, -4.92, -6.26, -6.07, -6.51, -5.94, -4.0, -3.72, -4.34, -4.77, -5.26, -5.26, -5.73, -5.81, -5.81, -5.73, -5.94, -6.0, -6.16, -6.0, -5.6, -4.89, -4.19, -4.83, -5.59, -5.76, -5.9, -5.06, -3.49, -2.69, -2.67, -1.84, 0.0, 0.0, 1.96, 3.0, 4.16, 4.42, 4.68, 3.6, 3.6, 2.67, 2.67, 2.82, 2.64, 3.0, 2.64, 2.64, 1.96, 1.96, 1.96, 1.84, 1.73, 1.01, 0.0, 0.0, 0.0, 0.0, 0.0, 0.0, 0.0, 0.0, 0.0, -2.68, -2.68, -1.9, 0.0, 0.0, 0.0, 1.05, 6.0, 8.9, 9.35, 9.21, 8.56, 7.76, 7.2, 6.18, 6.21, 7.54, -11.88, -11.5, -10.96, -10.04, -9.3, -8.38, -7.81, -6.95, -6.04, -5.44, -4.46, -3.84, -3.45, -3.27, -3.09, -2.54, -2.69, -2.67, -5.37, -6.71, -5.36, -6.26, -5.94, -5.94, -5.21, -4.4, -4.34, -4.34, -4.92, -5.36, -5.81, -6.26, -6.26, -7.45, -5.94, -7.47, -6.16, -6.88, -6.57, -6.21, -6.08, -6.32, -6.48, -6.04, -6.04, -4.34, -2.69, -0.94, 0.0, 0.0, 0.95, 1.84, 2.82, 3.55, 3.9, 3.77, 3.4, 2.83, 2.83, 2.83, 2.67, 2.82, 2.64, 3.0, 2.64, 2.82, 1.96, 1.96, 1.96, 0.89, 0.94, 0.0, -0.95, -0.96, -0.96, 0.0, 0.0, 0.0, 0.0, 0.0, 0.0, 0.0, -2.68, -2.68, -1.58, -1.74, -1.66, 2.4, 7.54, 9.39, 9.35, 8.77, 8.48, 7.6, 6.55, 5.84, 6.21, 8.0, -12.03, -11.5, -10.96, -10.41, -9.5, -8.94, -8.08, -7.51, -6.64, -6.01, -5.38, -5.1, -4.34, -3.27, -3.45, -3.8, -3.45, -4.0, -4.87, -5.6, -5.73, -6.26, -5.81, -4.57, -4.98, -6.51, -5.26, -4.82, -5.36, -5.81, -6.26, -6.71, -6.71, -7.6, -7.45, -7.06, -7.89, -8.48, -8.48, -8.3, -8.18, -7.68, -6.95, -5.36, -4.5, -2.83, -0.89, 0.0, 0.0, 0.84, 2.26, 2.67, 2.82, 2.82, 2.82, 2.51, 1.84, 1.95, 1.95, 2.67, 2.67, 2.99, 2.82, 2.82, 2.82, 2.82, 1.96, 1.63, 1.63, 0.79, 0.0, -0.89, -2.8, -3.48, -2.84, -2.48, 0.0, 0.0, 0.0, -0.0, 0.0, 0.0, 0.0, 0.0, -1.4, -2.48, 0.0, 6.17, 8.94, 8.94, 8.9, 8.29, 8.06, 7.2, 5.69, 5.37, 6.57, 8.05, -12.03, -11.88, -11.34, -10.41, -9.86, -9.3, -8.65, -8.08, -7.25, -6.32, -5.71, -5.71, -5.21, -3.8, -3.45, -3.8, -4.71, -4.34, -5.1, -5.84, -6.8, -6.51, -5.81, -6.26, -5.73, -6.51, -6.94, -6.71, -7.15, -5.73, -6.2, -6.45, -6.45, -5.94, -6.51, -6.94, -6.94, -7.47, -8.99, -9.24, -8.4, -6.79, -5.24, -3.6, -2.83, -1.75, -0.89, 0.0, 0.0, 0.94, 1.84, 1.75, 1.95, 1.84, 1.84, 1.84, 1.84, 1.84, 1.95, 1.84, 2.67, 2.82, 3.55, 3.55, 2.82, 2.82, 1.96, 1.96, 1.96, 0.89, 0.95, 0.0, -1.4, -4.47, -4.47, -3.58, -1.4, 0.0, -0.0, -0.0, 0.0, 0.0, 0.0, -2.68, -1.6, 0.0, 5.73, 8.49, 8.94, 8.49, 8.45, 8.29, 7.6, 6.91, 5.53, 5.37, 6.88, 8.05, -12.03, -11.88, -11.5, -10.96, -10.41, -9.5, -9.21, -8.44, -7.51, -6.92, -6.01, -5.69, -5.21, -4.0, -2.83, -3.45, -4.5, -4.74, -5.36, -5.53, -5.06, -3.48, -3.48, -4.8, -6.26, -6.71, -6.71, -7.15, -7.15, -7.6, -6.02, -6.0, -5.49, -4.58, -3.79, -2.8, 0.0, -2.4, -6.17, -8.05, -7.37, -6.08, -4.19, -2.82, -2.67, -1.84, -0.94, 0.0, 0.0, 0.89, 0.89, 0.89, 1.75, 0.84, 0.84, 0.94, 0.94, 1.84, 1.95, 1.84, 2.82, 3.55, 3.55, 3.55, 2.82, 2.82, 2.82, 1.84, 1.84, 1.84, 2.99, 3.48, 3.58, -0.0, -1.6, -2.21, 0.0, 0.0, -0.0, -1.4, -2.68, 0.0, 0.0, 0.0, 2.21, 5.26, 7.6, 8.05, 8.49, 8.49, 8.44, 7.63, 6.82, 6.45, 5.53, 5.84, 7.54, 8.05, -12.03, -11.88, -11.5, -10.96, -10.41, -9.86, -9.3, -8.65, -8.08, -7.17, -6.32, -5.69, -5.21, -4.34, -3.45, -3.32, -3.32, -4.74, -5.36, -4.71, -2.51, 0.0, 1.05, 0.0, 0.0, -1.84, -4.4, -4.47, -5.36, -6.26, -7.6, -6.16, -5.37, -4.5, -3.2, 0.0, 4.47, 3.47, -1.98, -4.4, -5.36, -3.48, 0.0, 0.0, 0.0, 1.03, 1.96, 0.89, 0.89, 1.32, 1.32, 0.94, 0.84, 0.94, 0.0, 0.0, 0.94, 0.94, 0.94, 1.73, 2.64, 3.0, 3.0, 2.64, 2.64, 2.82, 2.64, 1.98, 1.98, 2.16, 3.22, 4.8, 5.26, 5.36, 4.92, 4.02, 3.13, 0.0, -0.0, -0.0, -0.0, 2.68, 3.13, 3.2, 4.34, 5.36, 6.71, 7.15, 7.6, 7.6, 7.11, 6.4, 6.11, 5.53, 5.69, 6.57, 7.6, 8.05, -12.03, -12.03, -11.5, -10.96, -10.41, -9.86, -9.5, -9.01, -8.08, -7.51, -6.87, -6.23, -5.82, -4.74, -4.88, -4.0, -3.88, -4.2, -4.0, -4.34, -1.84, 0.0, 1.98, 3.0, 2.82, 2.82, 3.0, 3.72, 0.0, -5.94, -7.6, -7.45, -5.72, -3.4, 0.0, 2.95, 4.47, 4.4, 2.4, 2.2, 4.92, 5.51, 5.58, 5.72, 6.44, 6.01, 4.42, 3.6, 2.67, 2.54, 1.96, 1.73, 0.94, 0.0, 0.0, 0.0, 0.0, 0.0, 0.0, 0.95, 1.98, 1.84, 1.98, 2.6, 2.8, 3.0, 1.84, 1.98, 2.16, 1.99, 2.4, 3.48, 4.4, 5.26, 5.73, 5.09, 4.4, 3.2, 2.8, 1.41, -0.0, 2.4, 2.68, 3.39, 3.9, 4.38, 4.92, 6.26, 6.71, 7.08, 6.02, 5.43, 5.37, 6.11, 6.6, 7.37, 8.05, 8.05, -12.28, -12.03, -11.5, -11.34, -10.96, -10.41, -9.5, -9.21, -8.65, -7.73, -7.44, -6.79, -8.24, -6.64, -6.32, -6.64, -5.63, -5.21, -4.96, -4.21, -1.49, 0.0, 1.99, 4.43, 4.74, 4.83, 5.37, 5.69, 3.4, -1.63, -4.4, 0.0, 3.48, 3.47, 3.91, 4.43, 5.94, 6.71, 6.26, 6.71, 7.45, 7.89, 7.47, 6.9, 7.28, 5.84, 5.59, 5.59, 4.5, 3.6, 2.83, 1.84, 0.0, 0.0, -0.94, -0.89, -1.01, 0.0, 0.0, 0.0, 0.96, 1.19, 2.2, 2.76, 2.16, 0.89, 0.95, 1.03, 1.05, 0.96, 1.19, 0.98, 2.84, 2.97, 3.39, 3.72, 4.4, 4.4, 4.02, 2.21, -0.0, 1.2, 2.24, 2.68, 3.39, 3.6, 4.15, 5.26, 4.85, 5.09, 4.8, 4.84, 5.46, 6.99, 7.12, 7.54, 7.54, 7.54, -12.28, -12.28, -11.5, -11.5, -10.96, -10.41, -9.86, -9.3, -9.01, -8.08, -8.0, -8.0, -6.92, -5.71, -6.95, -6.79, -6.79, -6.91, -5.06, 0.0, 1.84, 4.11, 5.21, 6.51, 6.0, 6.0, 6.4, 6.4, 4.29, 1.63, 5.2, 7.15, 7.89, 7.47, 6.44, 5.37, 5.95, 5.94, 7.89, 7.47, 6.21, 6.21, 5.58, 5.24, 4.43, 4.74, 3.97, 3.6, 3.45, 2.83, 1.75, 0.85, 0.0, -1.75, -2.83, -2.67, -2.64, -1.84, -0.96, 0.0, 1.27, 3.48, 4.74, 3.91, 3.0, 0.0, 0.0, 0.0, 0.0, 0.0, 0.0, 0.0, 0.0, 1.2, 1.58, 1.9, 3.2, 3.82, 3.9, 3.58, 2.4, -0.0, -0.0, 0.0, 1.58, 2.21, 2.98, 2.98, 3.6, 4.0, 4.22, 5.2, 6.57, 7.12, 7.12, 7.37, 7.54, 7.54, -12.28, -12.14, -11.5, -11.5, -10.96, -10.41, -9.86, -9.5, -9.21, -8.65, -8.08, -8.65, -7.86, -6.35, -6.41, -5.89, -6.18, -2.15, 0.0, 2.17, 5.26, 5.26, 5.26, 5.26, 6.26, 6.26, 6.26, 6.26, 6.0, 6.4, 6.8, 6.88, 6.4, 5.59, 4.74, 4.83, 5.69, 7.28, 6.6, 5.84, 5.37, 5.06, 4.74, 4.74, 4.74, 4.89, 3.72, 2.82, 1.84, 0.89, 0.85, 0.0, 0.0, -0.89, -3.6, -4.42, -4.74, -3.79, -2.84, 1.9, 5.26, 6.45, 6.6, 6.11, 3.6, 0.84, -1.73, -3.22, -3.22, -2.2, -2.0, -1.13, -0.99, 0.0, 0.0, 0.0, 0.0, 2.68, 4.02, 4.77, 3.9, 0.0, -2.24, -2.24, -2.24, 0.0, 0.0, 1.4, 2.21, 2.98, 3.6, 5.4, 5.94, 6.16, 6.57, 7.37, 7.37, 7.37, -12.28, -11.75, -11.75, -11.5, -10.96, -10.96, -10.41, -9.86, -9.3, -8.94, -8.65, -8.73, -8.45, -7.61, -5.69, -3.94, -2.23, -0.55, 1.16, 1.61, 2.15, 2.17, 2.24, 5.81, 5.81, 5.51, 5.09, 2.6, 4.92, 5.94, 5.72, 5.95, 5.84, 4.58, 4.58, 4.87, 4.95, 5.69, 5.37, 4.58, 3.97, 3.72, 4.11, 5.21, 5.6, 4.98, 5.06, 4.29, 3.4, 1.49, 1.84, 1.96, 3.0, 2.16, 0.0, -2.95, -4.98, -5.36, -2.21, 5.4, 8.05, 8.77, 8.17, 7.15, 5.36, 3.45, -0.95, -5.58, -5.51, -4.8, -3.58, -2.84, -2.84, -3.72, -3.6, -3.13, -2.68, -0.0, 2.4, 2.68, 3.72, 2.84, 0.0, -3.13, -2.68, -2.68, -2.4, 0.0, 0.0, 2.4, 2.8, 3.39, 4.0, 4.98, 6.0, 6.57, 6.57, 6.88, -11.75, -11.75, -11.75, -11.75, -10.96, -10.96, -10.41, -9.86, -9.5, -9.3, -8.94, -8.73, -8.78, -8.24, -6.96, -5.62, -3.37, -1.16, 0.0, 0.58, 1.11, 0.99, 1.34, 1.34, 1.26, 1.26, 0.6, 0.95, 0.89, 1.2, 3.93, 5.15, 5.49, 4.58, 4.58, 4.87, 4.16, 3.55, 2.82, 2.64, 2.8, 3.63, 4.29, 4.82, 6.26, 6.07, 6.0, 5.06, 5.06, 5.06, 4.11, 4.19, 5.09, 5.29, 6.26, 5.2, 0.0, -6.26, -0.0, 7.2, 9.35, 8.77, 8.17, 7.2, 7.82, 7.15, 2.76, -4.77, -6.71, -5.81, -5.26, -5.26, -5.26, -4.47, -2.8, -1.4, -0.0, -0.0, -0.0, 0.0, 1.0, 3.2, 3.13, 4.02, 0.0, -2.68, -3.13, -1.79, 0.0, 1.58, 0.0, 0.0, 1.9, 3.72, 4.98, 5.6, 6.0, 6.0, -11.75, -11.75, -11.75, -11.75, -11.34, -10.96, -10.79, -10.41, -9.86, -9.86, -9.02, -9.02, -8.78, -8.82, -8.24, -6.94, -5.17, -3.53, -1.73, -1.07, 0.0, 0.0, 0.0, 0.0, -0.0, -0.0, -0.0, -0.0, 0.0, 0.45, 2.0, 4.98, 6.08, 4.74, 4.58, 4.58, 3.33, 2.82, 0.95, 0.96, 1.99, 3.48, 5.51, 5.81, 5.81, 6.26, 4.98, 6.0, 6.4, 6.8, 6.4, 6.51, 7.15, 7.15, 7.01, 5.2, 4.74, 0.0, 4.47, 7.2, 9.24, 9.74, 9.46, 9.46, 8.56, 8.06, 6.51, 1.9, -5.36, -5.7, -5.26, -4.98, -3.16, -0.0, 2.73, 2.48, 1.27, -0.0, -0.0, 0.0, 0.0, 2.24, 2.68, 3.13, 3.39, 3.58, 2.21, -0.0, 1.79, 0.0, 0.0, -1.79, 0.0, 2.21, 2.84, 4.29, 4.98, 4.98, -11.75, -11.75, -11.75, -11.75, -11.5, -10.96, -10.96, -10.41, -10.41, -9.59, -9.59, -9.37, -9.08, -8.82, -8.24, -7.33, -6.29, -5.0, -3.91, -2.83, -1.71, -1.05, -0.99, -0.6, -0.45, 0.0, 0.0, 0.0, 0.0, 0.89, 2.12, 3.2, 6.08, 6.08, 6.52, 6.28, 4.14, 1.84, 0.0, 0.0, 2.23, 5.09, 5.36, 5.36, 5.81, 5.81, 6.26, 6.07, 6.51, 6.51, 6.94, 6.51, 7.15, 6.71, 6.51, 6.0, 5.06, 2.76, 4.84, 8.94, 8.49, 8.05, 7.94, 8.38, 8.48, 8.82, 8.38, 6.4, 0.0, -5.81, -4.98, -0.0, 3.49, 6.0, 7.1, 6.26, 4.77, 1.6, -0.0, -2.21, -1.9, -0.0, -0.0, 1.58, 2.68, 5.26, 4.92, 3.82, 2.68, 3.13, 0.0, -1.58, -1.79, 0.0, 1.4, 3.48, 4.29, 4.29, -11.75, -11.75, -11.75, -11.75, -11.5, -11.34, -10.96, -10.79, -10.15, -9.94, -9.94, -9.42, -9.08, -8.82, -8.53, -7.33, -6.97, -5.67, -4.6, -4.16, -3.35, -2.75, -2.4, -1.6, -0.54, 0.0, 0.0, 0.0, 0.0, 1.2, 2.63, 3.87, 4.11, 6.64, 7.63, 6.8, 4.58, 1.98, 1.52, 2.2, 4.02, 4.92, 5.81, 5.81, 5.81, 5.81, 5.81, 5.81, 5.81, 6.07, 6.07, 6.51, 6.51, 6.51, 5.21, 5.21, 4.74, 4.74, 6.44, 8.06, 6.64, 6.51, 6.07, 6.0, 6.4, 6.4, 4.89, 4.83, 2.99, -2.6, -1.6, 4.11, 6.57, 7.85, 8.05, 7.85, 6.88, 4.02, -0.0, -2.84, -3.16, -2.84, -1.6, -0.0, -0.0, 2.24, 5.26, 4.82, 4.92, 4.82, 4.02, -2.4, -1.79, 0.0, 0.0, 1.4, 2.98, 2.98, -11.75, -11.75, -11.75, -11.75, -11.75, -11.5, -10.96, -10.96, -10.51, -10.51, -9.94, -9.66, -9.42, -8.82, -8.82, -7.93, -6.98, -6.33, -5.69, -5.06, -4.0, -3.4, -2.8, -1.73, -0.57, 0.0, -0.57, -0.59, -0.54, 1.7, 3.58, 3.98, 4.44, 7.6, 7.6, 7.56, 6.64, 5.21, 5.09, 5.81, 6.71, 5.81, 6.71, 5.81, 6.71, 6.26, 6.26, 5.81, 5.36, 5.51, 5.51, 5.51, 5.21, 5.21, 4.43, 4.43, 4.43, 4.74, 5.36, 5.72, 6.0, 4.84, 3.79, 3.79, 3.22, 2.95, 3.72, 3.2, 3.2, 0.0, 3.48, 5.58, 6.57, 7.55, 8.05, 7.63, 7.2, 5.6, 3.13, -0.0, -2.84, -2.73, -2.48, -1.13, -0.0, 0.0, 2.8, 4.92, 5.73, 5.81, 2.4, -2.21, -2.24, 0.0, 0.0, 0.0, 1.58, 1.58, -11.99, -11.75, -11.75, -11.75, -11.75, -11.5, -11.34, -10.96, -10.7, -10.51, -10.01, -10.01, -9.42, -9.08, -8.5, -7.9, -7.61, -6.71, -6.08, -5.29, -4.0, -3.37, -2.77, -1.67, -1.16, -1.16, -1.73, -2.22, -0.6, 1.79, 3.58, 3.58, 4.02, 4.92, 5.78, 7.85, 7.37, 7.45, 7.15, 6.51, 7.15, 7.15, 6.71, 7.15, 7.01, 6.64, 6.0, 5.51, 5.09, 5.09, 5.09, 5.09, 4.46, 4.11, 3.22, 3.47, 3.47, 4.43, 4.43, 3.47, 3.22, 3.22, 2.4, 0.0, 0.0, 1.08, 0.96, 1.63, 3.0, 3.47, 6.36, 6.26, 6.71, 7.15, 7.37, 7.2, 7.2, 7.12, 6.0, 4.98, 4.02, 2.53, -0.0, -0.0, -0.0, 0.0, 3.13, 4.02, 4.92, 5.73, 4.02, -0.0, -0.0, 2.24, 2.8, 2.68, 1.79, 1.79, -11.99, -11.75, -11.75, -11.75, -11.75, -11.5, -11.34, -11.34, -11.07, -10.51, -10.23, -10.01, -10.01, -9.42, -8.5, -9.89, -7.9, -7.6, -6.35, -5.06, -4.16, -4.2, -3.4, -3.6, -2.64, -3.47, -1.49, -1.4, 2.68, 2.68, 3.13, 3.09, 3.58, 3.98, 4.6, 5.31, 5.08, 4.8, 5.6, 6.4, 5.73, 6.26, 7.15, 7.01, 7.47, 5.37, 4.74, 4.84, 5.09, 5.09, 5.51, 5.51, 4.84, 4.84, 4.84, 3.47, 3.47, 3.47, 3.47, 1.84, 1.84, 1.7, 1.7, 0.0, 0.0, 0.0, 0.0, 0.96, 1.84, 3.15, 5.86, 5.53, 5.53, 5.37, 5.06, 5.95, 6.57, 7.12, 7.53, 7.12, 6.17, 5.26, 3.48, 1.98, 1.6, 3.2, 3.2, 1.9, 4.02, 3.9, 4.77, 4.47, 3.72, 3.47, 4.47, 3.58, 3.13, 3.13, -11.6, -11.75, -11.75, -11.75, -11.75, -11.5, -11.34, -11.34, -11.07, -11.07, -10.23, -10.01, -10.01, -9.42, -9.08, -8.19, -7.86, -7.55, -8.22, -7.18, -6.98, -5.45, -5.44, -5.89, -3.97, -2.23, 0.0, 1.7, 3.13, 2.68, 2.6, 2.63, 3.13, 3.09, 3.82, 3.88, 3.88, 4.0, 3.72, 3.6, 3.87, 4.02, 4.44, 5.09, 5.08, 5.69, 4.74, 4.84, 5.81, 5.51, 5.64, 5.94, 5.21, 5.21, 4.29, 4.11, 3.72, 2.53, 1.99, 0.0, 0.0, 0.0, 0.0, 0.0, 0.0, 0.0, 0.0, 0.96, 1.96, 2.54, 3.49, 2.51, 1.7, 0.89, 0.89, 2.99, 4.98, 6.36, 6.99, 6.57, 6.57, 6.64, 5.81, 4.4, 2.84, 1.2, -0.0, -0.0, 2.24, 2.68, 4.34, 5.81, 5.73, 5.73, 4.92, 4.47, 3.58, 3.58, -11.6, -11.36, -11.75, -11.75, -11.75, -11.5, -11.5, -11.34, -11.07, -11.07, -10.59, -10.59, -9.72, -9.42, -9.42, -8.5, -7.86, -7.55, -7.51, -8.31, -7.68, -6.15, -6.79, -5.69, -3.45, -0.51, 0.6, 2.24, 2.24, 2.17, 2.12, 2.17, 2.24, 2.68, 2.91, 3.07, 3.07, 3.2, 3.2, 3.39, 3.53, 4.02, 4.47, 5.24, 5.99, 6.9, 5.36, 5.64, 6.26, 6.26, 6.07, 6.07, 5.6, 5.6, 5.21, 4.11, 3.91, 2.6, 0.0, 0.0, 0.0, 0.0, 0.0, 0.0, 0.0, 0.0, 1.19, 0.96, 1.84, 2.67, 2.47, 0.0, -1.63, -2.47, -1.84, 0.0, 3.95, 5.94, 6.45, 6.57, 6.57, 6.57, 6.45, 4.92, 4.47, 3.13, -0.0, -0.0, -0.0, -0.0, 3.58, 5.36, 5.73, 5.36, 4.92, 3.9, 2.97, 2.97, -11.6, -11.36, -11.36, -11.36, -11.75, -11.5, -11.34, -11.34, -11.07, -11.07, -10.59, -10.59, -9.72, -10.01, -9.42, -9.08, -8.19, -7.81, -8.15, -7.27, -5.08, -4.65, -5.89, -6.51, -4.81, -2.32, 0.0, 0.65, 1.26, 1.6, 1.6, 1.7, 1.79, 2.24, 2.6, 2.91, 2.91, 2.91, 3.39, 3.39, 3.98, 3.98, 4.47, 4.92, 6.14, 5.6, 6.0, 6.26, 6.71, 7.15, 7.01, 6.94, 6.0, 6.0, 5.21, 4.74, 4.19, 3.0, 0.0, -1.84, -2.48, -2.0, -1.08, -1.27, 0.0, 0.0, 1.08, 1.05, 1.84, 2.99, 2.97, 0.0, -3.16, -4.92, -2.68, 0.0, 3.13, 4.02, 5.36, 6.02, 6.57, 6.7, 6.99, 6.88, 6.36, 5.7, 5.36, 5.36, 4.15, -0.0, 1.98, 3.9, 4.38, 4.47, 4.02, 3.9, 4.24, 4.24, -11.6, -11.6, -11.6, -11.22, -11.22, -11.34, -11.34, -11.34, -11.07, -11.07, -10.8, -10.59, -10.3, -10.01, -9.66, -9.37, -8.45, -8.15, -7.86, -7.3, -5.72, -3.84, -4.29, -5.75, -5.65, -4.47, -2.36, -1.11, 0.0, 0.6, 1.2, 1.2, 1.34, 1.79, 1.7, 2.17, 2.4, 2.91, 3.32, 3.53, 3.98, 4.02, 4.02, 4.47, 5.36, 5.7, 6.58, 6.71, 7.15, 7.6, 7.45, 7.06, 6.64, 6.4, 6.0, 5.36, 4.74, 4.58, 1.63, -2.48, -4.4, -3.16, -2.23, -1.4, 0.0, 0.0, 1.27, 1.08, 1.05, 1.84, 2.99, 4.8, -1.84, -1.84, -2.0, -0.0, 1.4, 2.97, 3.9, 5.36, 6.2, 6.88, 7.37, 7.37, 7.53, 7.53, 7.37, 7.54, 7.15, 4.8, 0.88, 1.98, 3.39, 3.58, 3.58, 3.47, 3.9, 3.9, -11.47, -11.47, -11.47, -11.22, -11.22, -10.96, -11.34, -11.34, -11.07, -11.07, -10.8, -10.59, -10.59, -10.01, -9.66, -9.37, -8.78, -8.45, -8.19, -7.6, -6.35, -4.71, -3.84, -4.65, -5.29, -5.06, -4.12, -2.44, -1.16, 0.0, 0.6, 0.63, 0.89, 1.34, 1.34, 1.7, 2.17, 2.63, 3.07, 3.53, 3.54, 4.02, 4.02, 4.02, 4.47, 4.47, 6.71, 7.15, 7.15, 7.6, 7.94, 7.06, 7.06, 7.06, 6.64, 5.72, 4.89, 4.74, 4.29, 0.0, -3.82, -4.02, -1.9, 0.0, 2.21, 2.53, 2.48, 1.7, 0.96, 0.96, 0.95, 4.11, -0.0, -2.16, -1.7, -0.0, -0.0, 2.2, 3.79, 4.82, 5.81, 6.26, 6.65, 6.51, 7.12, 7.53, 7.81, 7.81, 7.12, 6.36, 1.19, -0.0, 0.99, 1.58, 2.68, 2.97, 3.47, 3.47, -11.08, -11.08, -11.08, -11.22, -11.22, -10.96, -11.34, -11.34, -11.07, -11.07, -10.8, -10.59, -10.59, -10.01, -9.66, -9.37, -9.3, -8.78, -8.45, -8.19, -7.3, -6.08, -4.71, -4.12, -4.71, -5.01, -4.43, -3.49, -2.23, -0.54, 0.0, 0.0, 0.0, 0.89, 1.34, 1.79, 2.24, 2.6, 3.07, 3.53, 3.58, 4.02, 4.02, 3.58, 3.58, 3.39, 3.39, 3.53, 4.02, 4.47, 4.89, 7.94, 7.45, 7.06, 7.06, 5.72, 5.72, 4.54, 5.06, 4.43, 0.0, 0.0, 0.0, 3.13, 3.82, 3.72, 3.48, 2.2, 1.05, 0.0, 0.0, 1.08, -0.0, -2.64, -1.98, -0.96, -0.0, 2.0, 4.43, 5.37, 5.75, 6.21, 6.26, 6.65, 6.99, 7.12, 7.37, 7.53, 6.8, 6.4, 5.4, -0.0, -0.0, -0.0, 2.24, 2.68, 3.13, 3.13, -11.08, -11.08, -11.08, -10.83, -11.22, -10.96, -10.96, -11.07, -11.07, -11.07, -10.8, -10.59, -10.59, -10.23, -9.94, -9.37, -9.3, -9.02, -8.45, -8.19, -7.86, -6.97, -5.72, -5.1, -4.45, -4.43, -4.71, -4.11, -2.86, -1.88, -0.57, 0.0, 0.0, 0.0, 0.89, 1.34, 1.79, 2.24, 2.68, 3.13, 3.58, 4.02, 3.98, 3.53, 2.68, 2.17, 2.4, 2.91, 3.53, 4.02, 4.47, 4.89, 7.5, 7.94, 7.63, 6.9, 5.72, 6.0, 5.36, 5.37, 3.72, 2.4, 3.2, 4.02, 4.77, 4.4, 3.79, 1.99, 0.0, 0.0, 0.0, 0.0, 0.0, -1.08, -3.0, -1.84, -0.0, 1.6, 3.72, 5.49, 5.95, 5.75, 5.81, 6.26, 6.65, 6.94, 7.37, 6.8, 6.6, 6.4, 6.99, 2.8, -0.0, -0.0, 1.9, 3.13, 3.13, 3.13, -11.08, -11.08, -10.83, -10.83, -11.22, -10.96, -10.96, -10.96, -11.07, -11.07, -10.8, -10.59, -10.59, -10.01, -9.94, -9.59, -9.3, -9.3, -8.78, -8.73, -8.15, -7.59, -6.97, -6.01, -5.1, -4.45, -4.43, -4.11, -3.48, -2.51, -1.2, -1.2, -0.57, 0.0, 0.0, 0.63, 1.34, 1.79, 2.24, 2.68, 3.58, 3.98, 4.3, 3.39, 2.17, 1.6, 1.86, 2.91, 3.98, 4.47, 4.47, 4.47, 4.44, 4.77, 6.57, 6.6, 6.52, 6.0, 5.6, 4.74, 4.56, 2.99, 3.47, 4.98, 6.07, 4.98, 4.11, 1.84, 0.96, 0.0, 0.0, 0.0, 0.0, 1.41, 0.0, -0.0, -0.0, 0.83, 2.82, 4.42, 4.58, 5.21, 5.59, 5.81, 5.81, 6.2, 6.57, 6.6, 6.57, 6.94, 6.94, 6.7, 4.77, 3.48, 2.53, 2.8, 2.68, 2.68, -11.08, -11.08, -10.83, -10.83, -10.83, -10.96, -10.96, -10.96, -10.7, -11.07, -10.59, -10.59, -10.23, -10.01, -9.94, -9.59, -9.66, -9.3, -9.3, -8.73, -8.15, -7.55, -7.55, -6.67, -5.72, -5.08, -4.45, -4.74, -4.43, -3.79, -2.86, -1.61, -1.2, -0.57, 0.0, 0.0, 0.95, 1.7, 2.17, 2.63, 3.53, 3.98, 4.34, 4.11, 2.8, 0.45, -0.0, 2.68, 4.34, 4.92, 4.92, 4.44, 4.34, 4.3, 4.6, 6.21, 6.52, 6.64, 5.58, 4.74, 3.72, 2.8, 4.11, 5.6, 5.6, 5.36, 1.84, 0.96, 0.0, 0.0, 0.0, 0.0, 0.0, 1.03, 4.29, 4.92, 3.22, 0.95, 0.94, 2.51, 3.55, 3.16, 2.68, 4.85, 4.92, 4.85, 4.8, 6.0, 6.88, 7.1, 6.94, 7.37, 6.88, 5.81, 3.9, 2.97, 2.24, 2.24, -10.55, -10.55, -10.68, -10.68, -10.41, -10.79, -10.79, -10.51, -10.51, -10.51, -10.59, -10.59, -10.01, -10.01, -9.94, -9.59, -9.37, -9.3, -9.3, -8.73, -8.15, -7.81, -7.55, -6.95, -6.34, -6.04, -5.1, -5.06, -4.74, -4.11, -3.48, -2.23, -1.61, -1.0, -0.57, 0.0, 0.6, 1.26, 1.86, 2.4, 3.07, 3.53, 4.3, 6.02, 5.94, 1.58, 0.89, 3.98, 5.81, 5.36, 4.88, 4.34, 4.3, 4.11, 4.11, 3.88, 6.4, 6.52, 5.95, 5.06, 3.72, 3.22, 4.89, 6.0, 5.58, 3.91, 3.0, 0.0, -0.89, -1.84, -0.95, -0.95, -0.95, 0.0, 4.82, 6.26, 6.26, 4.98, 1.98, 0.89, 1.96, 2.6, 2.53, 2.17, 4.47, 4.47, 4.82, 5.51, 6.2, 6.64, 6.45, 6.45, 5.75, 6.28, 5.29, 4.02, 2.68, 2.68, -10.55, -10.55, -10.3, -10.68, -10.41, -10.41, -10.79, -10.51, -10.51, -10.51, -10.51, -10.23, -10.01, -9.66, -9.94, -9.59, -9.37, -9.3, -8.94, -8.38, -8.44, -7.81, -7.55, -7.23, -6.95, -6.34, -5.71, -5.38, -4.75, -3.84, -3.49, -2.86, -2.23, -1.16, -0.65, 0.0, 0.0, 1.24, 1.58, 2.4, 2.91, 3.39, 3.97, 4.3, 4.4, 4.54, 4.4, 5.33, 5.7, 5.09, 4.27, 3.88, 4.11, 4.0, 3.35, 3.35, 3.35, 3.78, 5.49, 5.06, 4.58, 3.72, 4.74, 5.58, 3.91, 3.91, 3.0, 1.49, -2.16, -4.19, -3.72, -1.98, 0.0, 0.0, 3.72, 5.37, 6.64, 6.71, 5.4, 2.8, 1.84, 1.13, 1.61, 1.58, 1.7, 4.02, 3.95, 4.38, 4.38, 4.38, 4.57, 5.4, 4.84, 6.21, 5.75, 4.57, 3.39, 3.39, -10.3, -10.3, -10.3, -10.68, -10.41, -10.41, -10.15, -10.15, -10.51, -10.51, -10.23, -10.23, -10.01, -9.66, -9.42, -9.37, -9.37, -8.94, -8.38, -8.44, -8.08, -7.55, -7.55, -7.55, -6.95, -6.34, -6.04, -5.71, -4.75, -4.75, -4.12, -3.49, -2.86, -1.8, -1.16, 0.0, 0.0, 0.54, 1.9, 2.5, 2.68, 3.07, 3.39, 3.39, 3.6, 4.98, 6.0, 5.31, 4.8, 4.27, 3.72, 3.72, 3.35, 3.35, 3.35, 3.14, 3.14, 2.84, 2.86, 4.74, 4.58, 4.58, 4.87, 3.72, 3.22, 2.16, 1.84, 1.73, 0.0, -4.43, -3.48, 0.0, 0.96, 1.4, 1.19, 3.91, 5.37, 6.26, 6.64, 5.37, 1.7, -0.0, -0.0, 0.54, 0.6, 0.89, 1.2, 2.23, 1.98, 2.21, 2.97, 3.6, 4.6, 4.84, 5.43, 5.2, 4.0, 4.0, -10.3, -10.3, -10.3, -10.3, -10.41, -10.41, -10.15, -9.94, -9.94, -10.3, -10.01, -10.01, -10.01, -9.42, -9.08, -9.37, -9.02, -8.73, -8.44, -8.08, -7.55, -7.55, -7.55, -7.55, -6.95, -6.95, -6.34, -5.71, -6.18, -5.06, -4.45, -4.12, -2.84, -2.22, -1.27, -0.51, 0.0, 0.53, 1.2, 1.88, 2.21, 3.07, 3.07, 3.07, 3.07, 2.79, 3.16, 3.48, 3.16, 3.16, 2.84, 2.84, 2.84, 2.84, 2.84, 2.84, 2.84, 2.84, 2.51, 2.86, 3.72, 3.77, 2.82, 2.64, 1.98, 0.96, 1.05, 1.73, 1.73, 0.0, 2.0, 2.99, 2.99, 0.0, 1.6, 1.98, 3.22, 4.4, 5.4, 5.09, 3.48, -0.0, -0.0, -0.0, -0.0, 0.0, 0.0, 0.0, 0.0, 0.0, 2.24, 3.13, 4.15, 4.6, 5.21, 4.84, 4.57, 4.57, -10.3, -10.3, -10.3, -9.86, -9.86, -10.23, -9.94, -9.94, -9.94, -9.94, -9.66, -9.66, -9.66, -9.42, -9.08, -8.78, -8.45, -8.15, -7.81, -7.55, -7.55, -7.55, -7.55, -7.55, -6.97, -6.95, -6.34, -6.04, -5.1, -5.89, -4.43, -4.71, -3.78, -2.86, -1.76, -0.59, 0.0, 0.0, 1.16, 1.61, 2.23, 2.53, 2.79, 2.79, 2.53, 2.23, 2.51, 2.23, 2.23, 2.51, 2.84, 2.84, 2.84, 2.84, 2.51, 2.23, 2.23, 2.23, 2.23, 2.23, 2.44, 2.82, 2.99, 1.98, 1.98, 1.05, 1.05, 0.96, 1.49, 2.82, 4.58, 4.58, 1.96, 0.0, 0.0, 1.05, 0.96, 1.83, 2.68, 3.58, 4.0, 1.98, -0.0, -0.88, -0.57, -0.63, -0.63, -0.54, 0.0, 0.0, 2.24, 2.4, 3.13, 4.15, 4.6, 6.0, 5.2, 5.2, -10.13, -10.13, -10.13, -9.86, -9.86, -9.86, -9.94, -9.94, -9.94, -9.94, -9.66, -9.66, -9.42, -9.42, -8.82, -8.78, -7.86, -7.81, -7.55, -7.55, -7.55, -7.27, -7.27, -6.97, -6.97, -6.67, -6.35, -6.34, -5.72, -4.46, -4.12, -4.11, -3.79, -2.86, -2.22, -1.11, -0.59, 0.0, 0.51, 1.33, 1.84, 2.23, 2.51, 2.51, 2.23, 1.8, 1.8, 1.8, 1.8, 2.51, 2.51, 2.51, 2.51, 2.23, 2.23, 2.23, 2.23, 1.8, 2.48, 2.48, 2.82, 3.91, 2.82, 2.66, 1.84, 1.05, 0.96, 1.05, 1.63, 1.73, 3.72, 2.99, 1.49, 0.0, 0.0, 3.13, -0.0, -0.0, 0.81, 2.0, 2.98, 2.98, 0.99, -0.0, -0.98, -1.49, -1.7, -1.61, -0.96, 0.0, 1.9, 2.21, 2.4, 3.13, 4.15, 4.84, 4.84, 4.84, -10.13, -10.13, -10.13, -9.86, -9.86, -9.86, -9.59, -9.59, -9.94, -9.94, -9.42, -9.42, -9.42, -9.42, -8.82, -8.19, -7.86, -7.88, -7.55, -7.55, -7.27, -7.27, -6.97, -6.97, -6.97, -6.97, -6.35, -6.35, -5.72, -5.09, -4.05, -3.45, -3.49, -2.86, -2.22, -1.11, -0.57, 0.0, 0.59, 1.27, 1.8, 1.8, 2.48, 2.22, 1.76, 1.11, 1.11, 1.8, 1.8, 1.6, 1.84, 1.84, 2.07, 1.8, 1.8, 1.8, 1.8, 1.58, 1.58, 1.76, 2.22, 4.14, 2.82, 2.82, 1.63, 1.52, 1.99, 1.99, 1.14, 1.84, 1.6, 1.49, 1.49, 0.0, 0.94, 2.12, 0.0, -1.19, -0.0, 1.05, 1.98, 2.21, 2.53, 1.13, -0.0, -1.49, -1.73, -2.2, 0.0, 0.0, 1.4, 3.13, 1.6, 2.4, 3.58, 4.0, 5.2, 5.2, -10.13, -10.13, -10.13, -9.86, -9.86, -9.86, -9.59, -9.59, -9.37, -9.37, -9.08, -9.08, -9.08, -8.82, -8.5, -8.22, -7.86, -7.59, -7.59, -7.27, -7.27, -6.97, -6.97, -6.97, -6.97, -6.97, -6.64, -6.35, -6.0, -5.34, -4.69, -3.37, -2.96, -2.16, -1.7, -1.19, -0.55, 0.0, 0.0, 1.08, 1.23, 1.76, 2.2, 1.73, 1.08, 1.23, 1.11, 1.27, 1.13, 1.6, 1.84, 1.84, 1.84, 1.6, 1.8, 1.8, 1.8, 1.58, 1.11, 1.23, 1.23, 1.73, 2.54, 1.96, 0.95, 1.63, 1.05, 1.05, 1.05, 0.88, 0.0, 1.03, 1.32, 0.94, 0.0, 0.0, 0.0, -2.68, 0.96, 1.7, 1.8, 1.98, 2.53, 2.98, 1.9, 0.0, 0.0, 0.0, 1.08, 2.48, 2.84, 3.13, 2.53, 2.53, 2.97, 3.58, 4.22, 4.22, -10.13, -10.13, -10.13, -9.86, -9.86, -9.86, -9.59, -9.37, -9.37, -9.37, -9.08, -9.08, -8.82, -8.5, -8.5, -8.22, -8.19, -7.59, -7.59, -7.59, -7.59, -6.98, -6.98, -6.69, -6.69, -6.35, -6.35, -6.08, -5.72, -5.46, -4.66, -4.0, -3.37, -2.4, -1.76, -1.14, -0.53, 0.0, 0.0, 0.54, 1.19, 1.73, 1.88, 2.64, 1.57, 1.23, 1.11, 1.27, 1.13, 1.6, 1.84, 1.6, 1.6, 1.8, 1.8, 1.8, 1.11, 1.11, 1.23, 1.23, 1.08, 1.08, 1.32, 1.01, 1.01, 1.4, 0.0, 0.0, 0.0, 0.0, 0.0, 0.96, 0.0, 0.0, 0.0, -1.84, -1.84, 0.0, 3.48, 2.53, 1.8, 1.98, 2.98, 2.98, 3.58, 3.13, 2.21, 2.23, 2.0, 2.48, 2.23, 3.2, 3.2, 2.84, 3.2, 2.68, 2.97, 3.6, -9.76, -9.76, -10.13, -9.86, -9.86, -9.86, -9.66, -9.37, -9.37, -9.08, -9.08, -8.5, -8.5, -8.5, -8.22, -7.9, -7.9, -7.6, -7.59, -7.3, -7.3, -6.98, -6.98, -6.98, -6.35, -6.35, -6.35, -6.35, -5.72, -5.32, -5.08, -4.44, -3.35, -2.89, -2.23, -1.18, -0.61, 0.0, 0.0, 0.58, 0.59, 1.16, 1.7, 2.82, 2.18, 1.73, 1.23, 1.27, 1.6, 1.8, 2.23, 2.23, 1.8, 1.8, 1.58, 1.11, 1.11, 1.11, 0.63, 0.63, 0.55, 0.55, 1.25, 0.95, 0.0, 0.0, 0.0, 0.0, 0.0, 0.0, 0.0, 0.0, 0.0, 0.0, 0.0, -3.48, -2.84, -0.0, 2.68, 2.68, 2.53, 2.98, 3.35, 3.35, 3.58, 2.97, 1.74, 1.27, 1.08, 1.27, 2.23, 2.53, 3.58, 2.84, 3.2, 2.68, 2.68, 2.97, -9.76, -9.76, -9.76, -9.5, -9.5, -9.3, -9.66, -9.37, -9.37, -9.37, -8.5, -8.5, -8.5, -8.5, -8.22, -7.9, -7.9, -7.9, -7.6, -7.3, -7.3, -6.98, -6.98, -6.98, -6.63, -6.35, -6.35, -5.98, -5.72, -5.32, -5.08, -4.66, -4.0, -3.35, -2.37, -1.71, -1.18, -0.56, 0.0, 0.0, 0.58, 0.53, 1.16, 1.7, 2.67, 1.84, 1.73, 1.76, 2.48, 2.44, 2.44, 2.2, 1.73, 1.76, 1.76, 1.23, 1.23, 0.55, 0.55, 0.55, 0.0, 0.0, 0.59, 0.0, 0.0, 0.0, 0.0, 0.0, 1.05, 1.05, 0.0, 0.0, 0.0, 0.0, 0.0, -4.02, -3.16, -0.0, -0.0, 1.13, 1.4, 2.98, 2.84, 3.35, 3.13, 2.8, 0.99, 0.0, 1.27, 1.27, 2.23, 2.53, 3.13, 2.53, 3.2, 3.13, 2.24, 2.68, -9.76, -9.76, -9.76, -9.76, -9.3, -9.3, -9.3, -9.02, -9.02, -8.78, -8.5, -8.5, -8.5, -8.5, -8.22, -7.9, -7.9, -7.9, -7.6, -7.6, -7.6, -6.98, -6.7, -6.7, -6.7, -6.34, -6.08, -5.7, -5.7, -5.32, -4.66, -4.66, -4.0, -3.35, -2.71, -2.23, -1.09, -0.59, -0.56, 0.0, 0.0, 0.0, 0.53, 0.59, 1.14, 1.84, 2.36, 2.4, 2.84, 2.82, 2.36, 2.18, 1.7, 1.73, 1.19, 1.19, 1.19, 0.55, 0.55, 0.0, 0.0, 0.0, 0.0, 0.0, 0.0, 0.0, 0.0, 0.0, 0.96, 1.05, 0.0, 0.0, 0.0, 0.0, 1.98, 0.0, -2.2, -1.99, -1.19, -1.27, 1.2, 3.58, 3.93, 3.58, 3.58, 3.39, 2.84, 2.23, 2.23, 2.23, 2.23, 2.84, 3.13, 1.6, 1.6, 3.13, 3.13, 3.13, -9.58, -9.58, -9.58, -9.58, -9.3, -9.3, -9.3, -9.02, -8.78, -8.78, -8.5, -8.5, -8.5, -8.22, -8.22, -7.9, -7.9, -7.9, -7.9, -7.6, -7.32, -6.98, -6.98, -6.98, -6.7, -6.34, -6.34, -5.7, -5.7, -5.06, -4.63, -4.66, -4.0, -3.35, -2.86, -2.37, -1.71, -1.09, -0.56, 0.0, 0.0, 0.0, 0.0, 0.58, 0.58, 0.57, 1.65, 2.32, 2.32, 1.67, 1.67, 1.67, 1.26, 1.16, 1.16, 0.54, 0.61, 0.0, 0.0, 0.0, 0.0, 0.0, 0.0, 0.0, 0.0, 0.0, 1.63, 0.0, 1.19, 0.0, 0.0, -0.96, -1.4, 0.0, 1.73, 1.84, 2.8, 2.68, -0.0, -0.0, 2.97, 4.66, 4.6, 3.58, 3.47, 4.47, 4.57, 4.4, 4.0, 3.72, 3.72, 3.72, 3.58, 3.2, 2.21, 2.68, 2.68, 2.68, -9.21, -9.21, -9.21, -9.21, -8.94, -9.3, -9.3, -9.08, -8.78, -8.78, -8.78, -8.5, -8.5, -8.22, -8.22, -7.9, -7.9, -7.9, -7.9, -7.6, -7.32, -6.98, -6.98, -6.98, -6.98, -6.34, -6.34, -5.95, -5.7, -5.06, -4.63, -4.42, -4.0, -3.52, -2.86, -2.21, -1.71, -1.16, -1.09, -0.56, 0.0, 0.0, 0.0, 0.0, 0.0, 0.57, 0.57, 1.12, 1.23, 1.14, 1.14, 1.14, 1.14, 0.53, 0.59, 0.59, 0.0, 0.0, 0.0, 0.0, 0.0, 0.0, 0.0, 0.0, 1.32, 1.49, 1.4, 0.0, 0.0, 0.0, 0.0, -1.03, -1.03, -0.89, 0.0, 2.64, 3.77, 3.77, 3.72, 4.11, 4.98, 4.92, 3.93, 3.16, 3.6, 4.02, 4.82, 4.57, 4.77, 4.47, 4.47, 4.34, 4.02, 2.53, 1.9, 2.68, 2.68, 2.68, -9.21, -9.21, -9.21, -9.21, -9.21, -8.94, -8.73, -8.73, -8.45, -8.78, -8.78, -8.5, -8.22, -8.22, -8.22, -7.9, -7.9, -7.9, -7.9, -7.6, -7.32, -7.32, -6.98, -6.98, -6.98, -6.61, -6.34, -5.95, -5.7, -5.29, -5.06, -4.42, -3.97, -3.52, -2.86, -2.33, -2.21, -1.71, -1.16, -0.55, 0.0, 0.0, 0.0, 0.0, 0.0, 0.0, 0.57, 0.57, 0.58, 0.58, 0.58, 0.58, 0.58, 0.58, 0.0, 0.0, 0.0, 0.0, 0.0, 0.0, 0.0, -0.59, -0.59, 0.0, 0.0, 1.32, 1.49, 1.03, 0.0, -0.88, -1.73, -1.84, -1.03, -0.95, 0.0, 1.96, 2.67, 3.45, 4.34, 4.74, 4.87, 3.9, 2.84, 2.95, 3.58, 3.47, 3.58, 4.34, 4.47, 4.47, 4.92, 3.13, 3.13, 2.21, 1.9, 2.68, 2.68, 2.68, -9.21, -9.21, -9.21, -9.21, -9.21, -8.73, -8.73, -8.73, -8.45, -8.45, -8.78, -8.5, -8.22, -8.22, -8.22, -7.9, -7.9, -7.9, -7.9, -7.6, -7.32, -7.32, -6.98, -6.98, -6.98, -6.33, -6.34, -5.95, -5.7, -5.29, -5.06, -4.63, -3.97, -3.32, -3.01, -2.86, -2.21, -1.81, -1.16, -0.55, -0.55, 0.0, 0.0, 0.0, 0.0, 0.0, 0.0, 0.0, 0.0, 0.0, 0.0, 0.0, 0.0, 0.0, 0.0, 0.0, 0.0, 0.0, 0.0, 0.0, -0.59, -0.59, -0.59, -0.58, 0.0, 0.0, 0.0, 0.0, 0.0, -1.03, -1.98, -1.03, -0.89, 0.0, 0.0, 1.01, 1.84, 1.75, 2.69, 3.45, 3.6, 3.72, 2.2, 2.53, 3.16, 2.98, 3.47, 3.58, 4.02, 4.92, 4.02, 2.68, 3.13, 2.21, 2.21, 2.21, 2.21, 2.21, -9.01, -9.01, -9.01, -9.01, -8.73, -8.73, -8.73, -8.73, -8.73, -8.45, -8.45, -8.78, -8.22, -8.22, -7.9, -7.9, -7.9, -7.9, -7.6, -7.6, -7.32, -7.32, -6.98, -6.98, -6.98, -6.61, -6.34, -5.95, -5.7, -5.29, -4.63, -4.63, -3.97, -3.32, -3.52, -2.86, -2.21, -1.69, -1.16, -1.16, -0.55, -0.55, 0.0, 0.0, 0.0, 0.0, 0.0, 0.0, 0.0, 0.0, 0.0, 0.0, 0.0, 0.0, 0.0, 0.0, 0.0, 0.0, -0.59, -0.59, -0.59, -0.59, -1.16, -0.53, -0.58, 0.0, 0.0, 0.0, 0.0, -1.03, -1.03, -1.03, 0.0, 0.0, 0.0, 0.0, 0.0, 0.89, 1.75, 2.69, 2.67, 1.6, -0.0, 0.82, 2.53, 3.58, 3.6, 3.47, 3.82, 3.13, 3.13, 3.13, 2.8, 2.21, 2.21, 2.21, 2.21, 2.21, -9.01, -9.01, -9.01, -8.38, -8.38, -8.38, -8.38, -8.73, -8.73, -8.45, -8.45, -8.19, -8.19, -7.9, -7.9, -7.9, -7.9, -7.6, -7.6, -7.6, -7.6, -7.32, -6.98, -6.98, -6.98, -6.34, -6.34, -5.95, -5.7, -5.06, -4.63, -4.42, -3.97, -3.32, -3.52, -2.86, -2.21, -1.69, -1.71, -1.16, -1.16, -0.55, -0.55, 0.0, 0.0, 0.0, 0.0, 0.0, 0.0, 0.0, 0.0, 0.0, 0.0, 0.0, 0.0, 0.0, -0.53, -0.59, -0.59, -0.59, -0.59, -1.16, -1.16, -1.16, -1.16, 0.0, 0.0, 0.0, 0.0, 0.0, 0.0, 0.0, 0.0, 0.0, 0.0, 0.0, 0.0, 0.94, 1.75, 2.54, 2.67, 0.0, -2.16, -0.0, 2.47, 3.79, 4.0, 3.6, 1.9, 2.4, 3.2, 3.82, 3.82, 3.2, 2.21, 2.21, 2.21, 2.21, -8.38, -8.38, -8.38, -8.38, -8.38, -8.38, -8.38, -8.38, -8.73, -8.45, -8.19, -8.19, -8.19, -7.9, -7.9, -7.9, -7.6, -7.6, -7.6, -7.6, -7.6, -6.98, -6.98, -6.98, -6.34, -6.34, -5.95, -5.7, -5.29, -5.06, -4.63, -4.42, -3.97, -3.52, -3.52, -2.86, -2.21, -2.37, -1.71, -1.16, -1.16, -0.55, -0.55, -0.59, -0.56, 0.0, 0.0, 0.0, 0.0, 0.0, 0.0, 0.0, 0.0, 0.0, -0.58, -0.58, -0.53, -0.59, -0.59, -1.16, -1.16, -1.16, -1.16, -1.7, -1.7, -1.84, -0.89, -0.83, -0.89, -0.89, -0.89, -1.72, -0.95, -0.95, 0.0, 0.0, 0.0, 0.89, 1.84, 2.67, 2.67, 0.0, -3.82, -0.0, 4.03, 4.43, 3.6, 2.97, 1.2, 0.99, 2.53, 3.82, 3.39, 3.2, 2.8, 2.53, 2.53, 2.53, -8.38, -8.15, -8.15, -8.15, -8.15, -8.15, -8.15, -8.15, -8.15, -8.19, -8.19, -8.19, -8.19, -8.19, -7.9, -7.6, -7.6, -7.6, -7.6, -7.6, -7.6, -6.98, -6.7, -6.34, -6.34, -5.95, -5.7, -5.7, -5.06, -5.06, -4.42, -3.97, -4.2, -3.52, -3.35, -2.86, -2.21, -2.37, -1.71, -1.71, -1.16, -1.09, -1.09, -0.59, -0.56, -0.56, -0.56, 0.0, 0.0, 0.0, 0.0, 0.0, -0.57, -0.58, -0.58, -0.58, -0.58, -1.05, -1.16, -1.16, -1.16, -1.16, -1.84, -1.7, -1.84, -1.84, -0.94, -0.89, -0.95, -1.84, -2.8, -2.8, -2.8, -0.95, 0.0, 0.0, 0.95, 0.95, 1.73, 1.73, 1.73, 0.0, 0.0, 3.48, 5.24, 3.48, 3.6, 3.39, 2.21, 1.13, 1.13, 1.4, 1.58, 2.21, 3.2, 2.84, 2.84, 2.84, -8.15, -8.15, -8.15, -8.15, -8.15, -8.15, -8.15, -8.15, -8.15, -8.15, -7.86, -8.19, -8.19, -8.19, -7.9, -7.6, -7.6, -7.6, -7.6, -7.6, -6.98, -6.98, -6.34, -6.34, -6.08, -5.7, -5.7, -5.06, -5.06, -4.63, -4.66, -4.2, -4.0, -3.52, -3.35, -2.86, -2.37, -2.37, -1.71, -1.71, -1.71, -1.16, -1.09, -1.18, -0.59, -0.56, -0.56, -0.56, -0.57, -0.57, -0.57, -0.57, -0.57, -0.57, -0.58, -0.58, -1.14, -1.14, -1.14, -1.16, -1.16, -1.84, -1.67, -1.84, -2.36, -1.67, -0.89, -0.84, -1.73, -1.84, -2.8, -3.91, -3.91, -4.11, -1.03, 0.0, 0.0, 0.95, 1.01, 0.89, 0.89, 0.89, 2.2, 5.4, 4.11, 3.48, 3.58, 2.98, 2.98, 1.98, 1.13, -0.0, -0.0, 2.21, 2.53, 3.35, 3.35, 3.35, -8.15, -8.15, -8.15, -8.15, -8.15, -8.15, -8.15, -8.15, -8.15, -8.15, -7.86, -7.86, -7.86, -7.59, -7.59, -7.3, -7.3, -7.3, -7.3, -6.98, -6.98, -6.98, -6.35, -6.35, -5.98, -5.7, -5.06, -5.06, -4.63, -4.66, -4.66, -4.2, -4.0, -3.35, -3.35, -2.89, -2.37, -2.37, -1.71, -1.71, -1.71, -1.16, -1.09, -1.09, -1.18, -0.56, -0.56, -0.56, -0.56, -0.61, -0.57, -0.57, -0.57, -1.12, -1.23, -1.14, -1.14, -1.14, -1.14, -1.67, -1.84, -1.67, -1.67, -1.67, -2.36, -2.16, -1.75, -0.89, -0.89, -0.89, -0.95, -1.98, -3.49, -4.29, -2.16, -0.96, 0.0, 0.0, 0.0, 0.0, 0.0, 0.89, 2.84, 3.97, 3.35, 2.95, 2.68, 2.84, 2.84, 2.23, 1.13, 0.99, -0.0, 1.6, 2.84, 3.72, 3.72, 3.72, -8.08, -8.08, -7.81, -8.15, -8.15, -8.15, -8.15, -8.15, -8.15, -8.15, -7.86, -7.86, -7.59, -7.59, -7.59, -7.59, -7.3, -6.98, -6.98, -6.98, -6.98, -6.98, -6.35, -5.98, -5.72, -5.72, -5.32, -5.32, -4.66, -4.66, -4.2, -4.0, -3.52, -3.35, -2.86, -2.71, -2.37, -2.37, -2.37, -1.71, -1.71, -1.71, -1.16, -1.09, -1.18, -1.18, -1.1, -0.56, -0.56, -0.56, -0.56, -0.61, -1.12, -1.12, -1.12, -1.23, -1.14, -1.14, -1.67, -1.67, -1.67, -1.67, -1.67, -1.67, -2.36, -2.16, -1.67, -0.53, 0.0, 0.0, 0.0, 0.0, 0.0, -0.96, -1.08, -1.05, 0.0, 0.0, 0.0, 0.0, 0.95, 2.64, 2.16, 1.84, 1.84, 2.53, 2.53, 2.0, 2.0, 1.8, 1.8, 1.13, 1.6, 1.8, 2.84, 3.72, 3.72, 3.72, -8.08, -8.08, -7.81, -7.81, -7.81, -8.15, -7.88, -7.88, -7.59, -7.59, -7.59, -7.59, -7.59, -7.59, -7.59, -7.59, -7.28, -6.98, -6.98, -6.69, -6.35, -6.35, -6.35, -5.72, -5.72, -5.32, -5.08, -5.08, -4.66, -4.66, -4.0, -4.0, -3.52, -3.35, -2.86, -2.71, -2.37, -2.37, -2.37, -2.37, -1.71, -1.71, -1.71, -1.61, -1.18, -1.18, -1.1, -1.1, -1.1, -1.1, -1.1, -1.1, -1.2, -1.12, -1.12, -1.23, -1.67, -1.67, -1.67, -1.67, -1.67, -1.67, -2.16, -2.16, -2.16, -2.6, -2.32, -1.12, -0.85, 0.0, 0.0, 0.0, 0.0, 0.0, 0.0, 0.0, -0.96, 0.0, 0.0, 1.03, 2.8, 4.29, 3.35, 1.73, 1.73, 2.8, 1.99, 1.99, 1.66, 1.66, 0.98, 1.13, 1.8, 1.8, 2.84, 3.35, 3.35, 3.35, -8.08, -8.08, -7.81, -7.81, -7.55, -7.55, -7.55, -7.55, -7.59, -7.59, -7.27, -7.27, -7.27, -7.27, -7.27, -6.97, -6.97, -6.97, -6.69, -6.35, -6.35, -6.35, -5.98, -5.72, -5.32, -5.08, -5.08, -4.66, -4.66, -4.66, -4.0, -4.0, -3.52, -3.35, -2.86, -2.86, -2.89, -2.37, -2.21, -2.37, -2.37, -1.71, -1.71, -1.71, -1.73, -1.18, -1.18, -1.1, -1.1, -1.1, -1.1, -1.1, -1.2, -1.2, -1.12, -1.65, -1.8, -1.67, -1.67, -1.67, -2.16, -2.16, -2.16, -2.16, -2.16, -2.8, -2.8, -2.32, -1.65, -0.89, -0.85, -0.89, 0.0, 0.0, 0.0, 0.0, -0.96, 0.0, 0.0, 1.98, 3.91, 4.58, 4.98, 4.11, 2.67, 1.84, 1.7, 1.7, 0.81, 0.96, 0.88, -0.0, 0.99, 1.6, 2.84, 3.35, 3.35, 3.35, -8.08, -8.08, -8.08, -7.55, -7.55, -7.55, -7.55, -7.55, -7.27, -7.27, -7.27, -7.27, -7.27, -6.97, -6.97, -6.97, -6.97, -6.97, -6.64, -6.35, -6.08, -5.72, -5.72, -5.32, -5.32, -5.08, -4.66, -4.66, -4.66, -4.0, -4.0, -4.0, -3.52, -3.35, -3.35, -2.86, -2.71, -2.71, -2.71, -2.37, -2.37, -2.23, -1.71, -1.71, -1.73, -1.73, -1.73, -1.18, -1.18, -1.18, -1.18, -1.63, -1.76, -1.76, -1.76, -1.65, -1.8, -1.8, -1.8, -2.16, -2.16, -2.16, -2.16, -2.16, -2.36, -3.04, -3.04, -3.04, -2.32, -2.69, -1.84, -1.75, -0.94, -1.01, 0.0, -1.03, -1.98, -1.03, 0.0, 1.03, 4.19, 4.58, 5.06, 5.73, 3.55, 1.84, 1.6, 0.88, 0.81, -0.0, -0.0, -0.0, -0.0, 1.27, 2.84, 3.72, 3.72, 3.72, -7.73, -7.73, -7.85, -7.55, -7.55, -7.55, -7.55, -7.55, -7.55, -7.27, -7.27, -6.97, -6.97, -6.97, -6.97, -6.67, -6.67, -6.35, -6.35, -6.35, -5.72, -5.72, -5.72, -5.32, -5.08, -5.08, -4.66, -4.66, -4.66, -4.0, -4.0, -4.0, -3.52, -3.35, -3.35, -2.86, -2.86, -2.86, -2.71, -2.89, -2.37, -2.23, -2.23, -1.71, -1.73, -1.73, -1.73, -1.73, -1.73, -1.73, -1.73, -1.63, -1.63, -1.76, -1.76, -1.76, -1.65, -1.8, -2.32, -2.32, -2.16, -2.16, -2.32, -2.32, -3.04, -3.04, -3.04, -3.04, -2.8, -2.69, -2.69, -1.84, -0.94, 0.0, 0.0, -0.89, -1.03, -0.96, 0.0, 1.98, 3.0, 2.82, 4.58, 5.81, 3.72, 0.95, 1.03, 0.76, -0.0, -0.0, -0.0, -0.0, 0.87, 2.23, 2.84, 3.35, 3.35, 3.35, -7.51, -7.51, -7.51, -7.51, -7.55, -7.55, -7.55, -7.55, -7.55, -7.27, -6.97, -6.97, -6.97, -6.67, -6.67, -6.35, -6.35, -6.35, -6.35, -6.35, -6.0, -6.0, -5.72, -5.32, -5.08, -5.08, -4.66, -4.66, -4.66, -4.2, -4.0, -4.0, -4.0, -3.52, -3.35, -3.35, -2.86, -2.86, -2.71, -2.89, -2.37, -2.23, -2.23, -2.23, -1.84, -1.73, -1.73, -1.73, -1.73, -1.73, -1.73, -1.73, -1.63, -1.76, -1.76, -1.76, -2.29, -2.14, -2.32, -2.32, -2.32, -2.32, -2.32, -2.32, -2.8, -3.04, -3.47, -3.22, -3.47, -2.77, -1.73, -0.81, 0.0, 0.0, 0.0, 0.0, 0.0, 0.0, 0.0, 1.98, 2.12, 1.84, 3.72, 5.26, 2.8, -0.0, -0.0, -0.0, -0.0, -0.0, -0.0, 0.88, 0.98, 2.23, 2.84, 3.82, 3.82, 3.82, -7.8, -7.8, -7.51, -7.51, -7.51, -7.23, -7.55, -7.55, -7.55, -7.27, -6.97, -6.97, -6.67, -6.67, -6.35, -6.35, -6.35, -6.35, -6.35, -5.72, -5.72, -5.72, -5.72, -5.08, -5.08, -5.08, -4.66, -4.66, -4.66, -4.2, -4.0, -4.0, -4.0, -3.52, -3.35, -3.35, -2.86, -2.86, -2.86, -2.89, -2.37, -2.37, -2.23, -2.23, -2.23, -1.84, -1.73, -1.73, -1.73, -1.73, -1.73, -1.73, -1.63, -1.76, -1.76, -2.29, -2.29, -2.29, -2.32, -2.32, -2.32, -2.32, -2.32, -2.8, -2.8, -2.8, -3.47, -3.22, -3.04, -3.0, -2.26, -1.68, 0.0, 0.0, 0.94, 0.89, 0.0, 0.0, 0.0, 0.0, 0.89, 1.98, 3.0, 4.98, 4.29, -0.0, -0.89, -0.0, -0.0, -0.0, -0.0, -0.0, -0.0, 1.13, 1.2, 2.4, 2.4, 2.4, -7.44, -7.44, -7.44, -7.51, -7.51, -7.51, -7.23, -6.95, -6.95, -6.95, -6.95, -6.67, -6.67, -6.35, -6.35, -6.35, -6.35, -6.35, -5.72, -5.72, -5.72, -5.72, -5.72, -5.34, -5.08, -5.08, -4.66, -4.66, -4.66, -4.0, -4.0, -4.0, -4.0, -3.52, -3.35, -3.35, -2.86, -2.86, -2.86, -2.89, -2.37, -2.37, -2.23, -2.23, -2.23, -2.23, -2.23, -1.84, -1.73, -1.73, -1.73, -1.73, -1.73, -2.12, -2.29, -2.29, -2.29, -2.29, -2.29, -2.32, -2.32, -2.32, -2.8, -2.8, -2.8, -2.8, -3.47, -3.22, -2.82, -2.8, -2.29, -1.73, 0.0, 0.0, 0.0, 0.0, 0.0, 0.0, 0.0, 0.0, 0.0, 1.03, 2.8, 4.43, 5.26, 2.4, -0.0, -0.89, -0.0, -0.0, -0.0, -0.0, -0.0, -0.0, -0.0, 2.21, 2.21, 2.21, -7.44, -7.44, -7.44, -7.51, -7.51, -7.51, -7.23, -6.95, -6.95, -6.95, -6.95, -6.67, -6.67, -6.35, -6.35, -6.35, -6.35, -6.35, -5.72, -5.72, -5.72, -5.72, -5.72, -5.34, -5.08, -5.08, -4.66, -4.66, -4.66, -4.0, -4.0, -4.0, -4.0, -3.52, -3.35, -3.35, -2.86, -2.86, -2.86, -2.89, -2.37, -2.37, -2.23, -2.23, -2.23, -2.23, -2.23, -1.84, -1.73, -1.73, -1.73, -1.73, -1.73, -2.12, -2.29, -2.29, -2.29, -2.29, -2.29, -2.32, -2.32, -2.32, -2.8, -2.8, -2.8, -2.8, -3.47, -3.22, -2.82, -2.8, -2.29, -1.73, 0.0, 0.0, 0.0, 0.0, 0.0, 0.0, 0.0, 0.0, 0.0, 1.03, 3.22, 3.91, 4.89, 5.26, 3.48, -0.0, -0.0, -0.0, -0.0, -1.05, -1.19, -0.0, -0.0, 1.6, 1.6, 1.6]}]